Time,TemperatureF,DewpointF,PressureIn,WindDirection,WindDirectionDegrees,WindSpeedMPH,WindSpeedGustMPH,Humidity,HourlyPrecipIn,Conditions,Clouds,dailyrainin,SolarRadiationWatts/m^2,SoftwareType,DateUTC
2013-07-01 00:03:00,62.0,51.3,30.05,NNW,343,0.0,2.0,68,0.00,,CLR,0.00,0.00,VWS V14.00,2013-07-01 05:03:00,
2013-07-01 00:05:00,62.0,51.3,30.05,NNW,343,0.0,2.0,68,0.00,,CLR,0.00,0.00,VWS V14.00,2013-07-01 05:05:00,
2013-07-01 00:08:00,61.8,51.5,30.05,NNW,343,0.0,2.0,69,0.00,,CLR,0.00,0.00,VWS V14.00,2013-07-01 05:08:00,
2013-07-01 00:09:00,61.8,51.5,30.05,NNW,343,0.0,0.0,69,0.00,,CLR,0.00,0.00,VWS V14.00,2013-07-01 05:09:00,
2013-07-01 00:10:00,61.7,51.4,30.05,NNW,343,1.0,2.0,69,0.00,,CLR,0.00,0.00,VWS V14.00,2013-07-01 05:10:00,
2013-07-01 00:13:00,61.6,51.3,30.05,NNW,343,0.0,2.0,69,0.00,,CLR,0.00,0.00,VWS V14.00,2013-07-01 05:13:00,
2013-07-01 00:14:00,61.6,51.3,30.05,NNW,343,0.0,0.0,69,0.00,,CLR,0.00,0.00,VWS V14.00,2013-07-01 05:14:00,
2013-07-01 00:15:00,61.6,51.7,30.05,NNW,343,0.0,1.0,70,0.00,,CLR,0.00,0.00,VWS V14.00,2013-07-01 05:15:00,
2013-07-01 00:18:00,61.5,51.6,30.05,NNW,343,0.0,0.0,70,0.00,,CLR,0.00,0.00,VWS V14.00,2013-07-01 05:18:00,
2013-07-01 00:19:00,61.5,51.6,30.05,NNW,343,1.0,1.0,70,0.00,,CLR,0.00,0.00,VWS V14.00,2013-07-01 05:19:00,
2013-07-01 00:20:00,61.5,51.6,30.05,NNW,343,0.0,2.0,70,0.00,,CLR,0.00,0.00,VWS V14.00,2013-07-01 05:20:00,
2013-07-01 00:24:00,61.4,51.5,30.05,NNW,343,0.0,1.0,70,0.00,,CLR,0.00,0.00,VWS V14.00,2013-07-01 05:24:00,
2013-07-01 00:25:00,61.4,51.5,30.05,NNW,343,1.0,1.0,70,0.00,,CLR,0.00,0.00,VWS V14.00,2013-07-01 05:25:00,
2013-07-01 00:29:00,61.3,51.5,30.05,NNW,343,0.0,1.0,70,0.00,,CLR,0.00,0.00,VWS V14.00,2013-07-01 05:29:00,
2013-07-01 00:30:00,61.3,51.5,30.06,NNW,343,2.0,2.0,70,0.00,,CLR,0.00,0.00,VWS V14.00,2013-07-01 05:30:00,
2013-07-01 00:31:00,61.2,51.3,30.06,NNW,343,0.0,2.0,70,0.00,,CLR,0.00,0.00,VWS V14.00,2013-07-01 05:31:00,
2013-07-01 00:34:00,61.2,51.3,30.05,NNW,343,0.0,0.0,70,0.00,,CLR,0.00,0.00,VWS V14.00,2013-07-01 05:34:00,
2013-07-01 00:35:00,61.2,51.3,30.05,NNW,343,0.0,1.0,70,0.00,,CLR,0.00,0.00,VWS V14.00,2013-07-01 05:35:00,
2013-07-01 00:36:00,61.2,51.3,30.06,NNW,343,0.0,1.0,70,0.00,,CLR,0.00,0.00,VWS V14.00,2013-07-01 05:36:00,
2013-07-01 00:39:00,61.3,51.5,30.05,NNW,343,0.0,1.0,70,0.00,,CLR,0.00,0.00,VWS V14.00,2013-07-01 05:39:00,
2013-07-01 00:40:00,61.3,51.5,30.05,NNW,343,0.0,1.0,70,0.00,,CLR,0.00,0.00,VWS V14.00,2013-07-01 05:40:00,
2013-07-01 00:41:00,61.3,51.5,30.06,NNW,343,0.0,1.0,70,0.00,,CLR,0.00,0.00,VWS V14.00,2013-07-01 05:41:00,
2013-07-01 00:44:00,61.2,51.3,30.05,NNW,343,0.0,0.0,70,0.00,,CLR,0.00,0.00,VWS V14.00,2013-07-01 05:44:00,
2013-07-01 00:45:00,61.2,51.3,30.05,NNW,343,0.0,1.0,70,0.00,,CLR,0.00,0.00,VWS V14.00,2013-07-01 05:45:00,
2013-07-01 00:47:00,61.2,51.3,30.05,NNW,343,0.0,1.0,70,0.00,,CLR,0.00,0.00,VWS V14.00,2013-07-01 05:47:00,
2013-07-01 00:50:00,61.2,51.7,30.05,NNW,343,2.0,2.0,71,0.00,,CLR,0.00,0.00,VWS V14.00,2013-07-01 05:50:00,
2013-07-01 00:51:00,61.2,51.3,30.05,NNW,343,0.0,2.0,70,0.00,,CLR,0.00,0.00,VWS V14.00,2013-07-01 05:51:00,
2013-07-01 00:52:00,61.2,51.7,30.05,NNW,343,1.0,2.0,71,0.00,,CLR,0.00,0.00,VWS V14.00,2013-07-01 05:52:00,
2013-07-01 00:55:00,61.1,51.6,30.05,NNW,343,2.0,2.0,71,0.00,,CLR,0.00,0.00,VWS V14.00,2013-07-01 05:55:00,
2013-07-01 00:56:00,61.1,51.6,30.05,NNW,343,1.0,3.0,71,0.00,,CLR,0.00,0.00,VWS V14.00,2013-07-01 05:56:00,
2013-07-01 00:57:00,61.1,51.6,30.05,NNW,343,0.0,3.0,71,0.00,,CLR,0.00,0.00,VWS V14.00,2013-07-01 05:57:00,
2013-07-01 01:00:00,61.1,51.6,30.05,NNW,343,1.0,3.0,71,0.00,,CLR,0.00,0.00,VWS V14.00,2013-07-01 06:00:00,
2013-07-01 01:01:00,61.1,51.6,30.05,NNW,343,0.0,2.0,71,0.00,,CLR,0.00,0.00,VWS V14.00,2013-07-01 06:01:00,
2013-07-01 01:05:00,61.0,51.5,30.06,NNW,343,1.0,2.0,71,0.00,,CLR,0.00,0.00,VWS V14.00,2013-07-01 06:05:00,
2013-07-01 01:06:00,61.0,51.5,30.06,NNW,343,2.0,2.0,71,0.00,,CLR,0.00,0.00,VWS V14.00,2013-07-01 06:06:00,
2013-07-01 01:07:00,61.0,51.5,30.06,NNW,343,1.0,2.0,71,0.00,,CLR,0.00,0.00,VWS V14.00,2013-07-01 06:07:00,
2013-07-01 01:10:00,61.0,51.5,30.06,NNW,343,0.0,2.0,71,0.00,,CLR,0.00,0.00,VWS V14.00,2013-07-01 06:10:00,
2013-07-01 01:11:00,60.9,51.5,30.06,NNW,343,0.0,2.0,71,0.00,,CLR,0.00,0.00,VWS V14.00,2013-07-01 06:11:00,
2013-07-01 01:12:00,60.9,51.5,30.06,NNW,343,0.0,2.0,71,0.00,,CLR,0.00,0.00,VWS V14.00,2013-07-01 06:12:00,
2013-07-01 01:13:00,60.9,51.5,30.06,NNW,343,1.0,2.0,71,0.00,,CLR,0.00,0.00,VWS V14.00,2013-07-01 06:13:00,
2013-07-01 01:15:00,60.9,51.5,30.06,NNW,343,1.0,2.0,71,0.00,,CLR,0.00,0.00,VWS V14.00,2013-07-01 06:15:00,
2013-07-01 01:16:00,60.8,51.7,30.06,NNW,343,2.0,2.0,72,0.00,,CLR,0.00,0.00,VWS V14.00,2013-07-01 06:16:00,
2013-07-01 01:17:00,60.8,51.7,30.06,NNW,343,1.0,3.0,72,0.00,,CLR,0.00,0.00,VWS V14.00,2013-07-01 06:17:00,
2013-07-01 01:18:00,60.7,51.6,30.06,NNW,343,2.0,3.0,72,0.00,,CLR,0.00,0.00,VWS V14.00,2013-07-01 06:18:00,
2013-07-01 01:20:00,60.7,51.6,30.06,NNW,343,0.0,3.0,72,0.00,,CLR,0.00,0.00,VWS V14.00,2013-07-01 06:20:00,
2013-07-01 01:21:00,60.7,51.6,30.06,NNW,343,3.0,3.0,72,0.00,,CLR,0.00,0.00,VWS V14.00,2013-07-01 06:21:00,
2013-07-01 01:22:00,60.7,51.6,30.06,NNW,343,1.0,3.0,72,0.00,,CLR,0.00,0.00,VWS V14.00,2013-07-01 06:22:00,
2013-07-01 01:23:00,60.7,51.6,30.06,NNW,343,2.0,3.0,72,0.00,,CLR,0.00,0.00,VWS V14.00,2013-07-01 06:23:00,
2013-07-01 01:25:00,60.7,51.6,30.06,NNW,343,1.0,3.0,72,0.00,,CLR,0.00,0.00,VWS V14.00,2013-07-01 06:25:00,
2013-07-01 01:26:00,60.7,51.6,30.06,NNW,343,1.0,2.0,72,0.00,,CLR,0.00,0.00,VWS V14.00,2013-07-01 06:26:00,
2013-07-01 01:27:00,60.7,51.6,30.06,NNW,343,0.0,2.0,72,0.00,,CLR,0.00,0.00,VWS V14.00,2013-07-01 06:27:00,
2013-07-01 01:28:00,60.7,51.6,30.06,NNW,343,2.0,4.0,72,0.00,,CLR,0.00,0.00,VWS V14.00,2013-07-01 06:28:00,
2013-07-01 01:29:00,60.7,51.6,30.06,NNW,343,1.0,2.0,72,0.00,,CLR,0.00,0.00,VWS V14.00,2013-07-01 06:29:00,
2013-07-01 01:30:00,60.7,51.6,30.06,NNW,343,1.0,4.0,72,0.00,,CLR,0.00,0.00,VWS V14.00,2013-07-01 06:30:00,
2013-07-01 01:31:00,60.7,51.6,30.06,NNW,343,0.0,3.0,72,0.00,,CLR,0.00,0.00,VWS V14.00,2013-07-01 06:31:00,
2013-07-01 01:32:00,60.7,51.6,30.06,NNW,343,2.0,3.0,72,0.00,,CLR,0.00,0.00,VWS V14.00,2013-07-01 06:32:00,
2013-07-01 01:33:00,60.7,51.6,30.06,NNW,343,1.0,3.0,72,0.00,,CLR,0.00,0.00,VWS V14.00,2013-07-01 06:33:00,
2013-07-01 01:34:00,60.8,51.7,30.06,NNW,343,1.0,3.0,72,0.00,,CLR,0.00,0.00,VWS V14.00,2013-07-01 06:34:00,
2013-07-01 01:35:00,60.7,51.6,30.06,NNW,343,2.0,3.0,72,0.00,,CLR,0.00,0.00,VWS V14.00,2013-07-01 06:35:00,
2013-07-01 01:36:00,60.8,51.7,30.06,NNW,343,0.0,3.0,72,0.00,,CLR,0.00,0.00,VWS V14.00,2013-07-01 06:36:00,
2013-07-01 01:37:00,60.8,51.7,30.06,NNW,343,1.0,3.0,72,0.00,,CLR,0.00,0.00,VWS V14.00,2013-07-01 06:37:00,
2013-07-01 01:38:00,60.8,51.7,30.06,NNW,343,1.0,3.0,72,0.00,,CLR,0.00,0.00,VWS V14.00,2013-07-01 06:38:00,
2013-07-01 01:40:00,60.8,51.7,30.06,NNW,343,0.0,1.0,72,0.00,,CLR,0.00,0.00,VWS V14.00,2013-07-01 06:40:00,
2013-07-01 01:41:00,60.8,51.7,30.06,NNW,343,2.0,2.0,72,0.00,,CLR,0.00,0.00,VWS V14.00,2013-07-01 06:41:00,
2013-07-01 01:42:00,60.8,51.7,30.06,NNW,343,1.0,2.0,72,0.00,,CLR,0.00,0.00,VWS V14.00,2013-07-01 06:42:00,
2013-07-01 01:43:00,60.8,51.7,30.06,NNW,343,0.0,2.0,72,0.00,,CLR,0.00,0.00,VWS V14.00,2013-07-01 06:43:00,
2013-07-01 01:45:00,60.8,51.7,30.06,NNW,343,1.0,3.0,72,0.00,,CLR,0.00,0.00,VWS V14.00,2013-07-01 06:45:00,
2013-07-01 01:46:00,60.8,51.7,30.06,NNW,343,2.0,3.0,72,0.00,,CLR,0.00,0.00,VWS V14.00,2013-07-01 06:46:00,
2013-07-01 01:47:00,60.8,51.7,30.06,NNW,343,1.0,3.0,72,0.00,,CLR,0.00,0.00,VWS V14.00,2013-07-01 06:47:00,
2013-07-01 01:48:00,60.8,51.7,30.06,NNW,343,0.0,3.0,72,0.00,,CLR,0.00,0.00,VWS V14.00,2013-07-01 06:48:00,
2013-07-01 01:50:00,60.8,51.7,30.06,NNW,343,0.0,2.0,72,0.00,,CLR,0.00,0.00,VWS V14.00,2013-07-01 06:50:00,
2013-07-01 01:51:00,60.8,51.7,30.06,NNW,342,0.0,2.0,72,0.00,,CLR,0.00,0.00,VWS V14.00,2013-07-01 06:51:00,
2013-07-01 01:52:00,60.7,51.6,30.06,NNW,343,1.0,2.0,72,0.00,,CLR,0.00,0.00,VWS V14.00,2013-07-01 06:52:00,
2013-07-01 01:53:00,60.7,51.6,30.06,NNW,343,1.0,2.0,72,0.00,,CLR,0.00,0.00,VWS V14.00,2013-07-01 06:53:00,
2013-07-01 01:55:00,60.7,51.6,30.06,NNW,343,2.0,2.0,72,0.00,,CLR,0.00,0.00,VWS V14.00,2013-07-01 06:55:00,
2013-07-01 01:56:00,60.6,51.9,30.06,NNW,343,1.0,3.0,73,0.00,,CLR,0.00,0.00,VWS V14.00,2013-07-01 06:56:00,
2013-07-01 01:57:00,60.6,51.9,30.06,NNW,343,1.0,3.0,73,0.00,,CLR,0.00,0.00,VWS V14.00,2013-07-01 06:57:00,
2013-07-01 01:58:00,60.6,51.9,30.06,NNW,343,3.0,3.0,73,0.00,,CLR,0.00,0.00,VWS V14.00,2013-07-01 06:58:00,
2013-07-01 01:59:00,60.5,51.8,30.06,NNW,343,1.0,2.0,73,0.00,,CLR,0.00,0.00,VWS V14.00,2013-07-01 06:59:00,
2013-07-01 02:00:00,60.6,51.9,30.06,NNW,343,2.0,3.0,73,0.00,,CLR,0.00,0.00,VWS V14.00,2013-07-01 07:00:00,
2013-07-01 02:01:00,60.5,51.8,30.06,NNW,343,2.0,3.0,73,0.00,,CLR,0.00,0.00,VWS V14.00,2013-07-01 07:01:00,
2013-07-01 02:02:00,60.5,51.8,30.06,NNW,343,3.0,4.0,73,0.00,,CLR,0.00,0.00,VWS V14.00,2013-07-01 07:02:00,
2013-07-01 02:03:00,60.4,51.7,30.06,NNW,343,1.0,4.0,73,0.00,,CLR,0.00,0.00,VWS V14.00,2013-07-01 07:03:00,
2013-07-01 02:04:00,60.4,51.7,30.06,NNW,343,3.0,3.0,73,0.00,,CLR,0.00,0.00,VWS V14.00,2013-07-01 07:04:00,
2013-07-01 02:05:00,60.4,51.7,30.06,NNW,343,2.0,4.0,73,0.00,,CLR,0.00,0.00,VWS V14.00,2013-07-01 07:05:00,
2013-07-01 02:06:00,60.3,51.6,30.06,NNW,343,3.0,4.0,73,0.00,,CLR,0.00,0.00,VWS V14.00,2013-07-01 07:06:00,
2013-07-01 02:07:00,60.3,51.6,30.06,NNW,343,0.0,4.0,73,0.00,,CLR,0.00,0.00,VWS V14.00,2013-07-01 07:07:00,
2013-07-01 02:08:00,60.2,51.5,30.06,NNW,343,1.0,4.0,73,0.00,,CLR,0.00,0.00,VWS V14.00,2013-07-01 07:08:00,
2013-07-01 02:09:00,60.2,51.5,30.06,NNW,343,0.0,2.0,73,0.00,,CLR,0.00,0.00,VWS V14.00,2013-07-01 07:09:00,
2013-07-01 02:10:00,60.2,51.5,30.06,NNW,343,2.0,4.0,73,0.00,,CLR,0.00,0.00,VWS V14.00,2013-07-01 07:10:00,
2013-07-01 02:12:00,60.2,51.9,30.06,NNW,343,1.0,2.0,74,0.00,,CLR,0.00,0.00,VWS V14.00,2013-07-01 07:12:00,
2013-07-01 02:13:00,60.2,51.9,30.06,NNW,343,0.0,2.0,74,0.00,,CLR,0.00,0.00,VWS V14.00,2013-07-01 07:13:00,
2013-07-01 02:14:00,60.1,51.8,30.06,NNW,343,0.0,3.0,74,0.00,,CLR,0.00,0.00,VWS V14.00,2013-07-01 07:14:00,
2013-07-01 02:15:00,60.2,51.9,30.06,NNW,343,1.0,2.0,74,0.00,,CLR,0.00,0.00,VWS V14.00,2013-07-01 07:15:00,
2013-07-01 02:17:00,60.0,51.7,30.06,NNW,343,3.0,3.0,74,0.00,,CLR,0.00,0.00,VWS V14.00,2013-07-01 07:17:00,
2013-07-01 02:18:00,60.0,51.7,30.06,NNW,343,1.0,3.0,74,0.00,,CLR,0.00,0.00,VWS V14.00,2013-07-01 07:18:00,
2013-07-01 02:19:00,60.0,51.7,30.06,NNW,343,2.0,3.0,74,0.00,,CLR,0.00,0.00,VWS V14.00,2013-07-01 07:19:00,
2013-07-01 02:20:00,60.0,51.7,30.06,NNW,343,2.0,3.0,74,0.00,,CLR,0.00,0.00,VWS V14.00,2013-07-01 07:20:00,
2013-07-01 02:23:00,59.9,51.6,30.06,NNW,343,0.0,3.0,74,0.00,,CLR,0.00,0.00,VWS V14.00,2013-07-01 07:23:00,
2013-07-01 02:24:00,59.9,51.6,30.06,NNW,343,1.0,2.0,74,0.00,,CLR,0.00,0.00,VWS V14.00,2013-07-01 07:24:00,
2013-07-01 02:25:00,59.9,51.6,30.06,NNW,343,1.0,3.0,74,0.00,,CLR,0.00,0.00,VWS V14.00,2013-07-01 07:25:00,
2013-07-01 02:28:00,59.9,51.6,30.06,NNW,343,4.0,4.0,74,0.00,,CLR,0.00,0.00,VWS V14.00,2013-07-01 07:28:00,
2013-07-01 02:29:00,59.8,51.5,30.06,NNW,343,2.0,2.0,74,0.00,,CLR,0.00,0.00,VWS V14.00,2013-07-01 07:29:00,
2013-07-01 02:30:00,59.9,51.6,30.06,NNW,343,1.0,4.0,74,0.00,,CLR,0.00,0.00,VWS V14.00,2013-07-01 07:30:00,
2013-07-01 02:33:00,59.8,51.5,30.06,NNW,343,2.0,3.0,74,0.00,,CLR,0.00,0.00,VWS V14.00,2013-07-01 07:33:00,
2013-07-01 02:34:00,59.8,51.5,30.06,NNW,343,2.0,2.0,74,0.00,,CLR,0.00,0.00,VWS V14.00,2013-07-01 07:34:00,
2013-07-01 02:35:00,59.8,51.5,30.06,NNW,343,1.0,3.0,74,0.00,,CLR,0.00,0.00,VWS V14.00,2013-07-01 07:35:00,
2013-07-01 02:38:00,59.8,51.5,30.06,NNW,343,3.0,4.0,74,0.00,,CLR,0.00,0.00,VWS V14.00,2013-07-01 07:38:00,
2013-07-01 02:39:00,59.8,51.9,30.06,NNW,343,4.0,4.0,75,0.00,,CLR,0.00,0.00,VWS V14.00,2013-07-01 07:39:00,
2013-07-01 02:40:00,59.8,51.9,30.06,NNW,343,2.0,4.0,75,0.00,,CLR,0.00,0.00,VWS V14.00,2013-07-01 07:40:00,
2013-07-01 02:43:00,59.8,51.9,30.06,NNW,343,3.0,4.0,75,0.00,,CLR,0.00,0.00,VWS V14.00,2013-07-01 07:43:00,
2013-07-01 02:44:00,59.8,51.9,30.06,NNW,343,2.0,4.0,75,0.00,,CLR,0.00,0.00,VWS V14.00,2013-07-01 07:44:00,
2013-07-01 02:45:00,59.8,51.9,30.06,NNW,343,3.0,4.0,75,0.00,,CLR,0.00,0.00,VWS V14.00,2013-07-01 07:45:00,
2013-07-01 02:48:00,59.8,51.9,30.06,NNW,343,2.0,5.0,75,0.00,,CLR,0.00,0.00,VWS V14.00,2013-07-01 07:48:00,
2013-07-01 02:49:00,59.8,51.9,30.06,NNW,343,3.0,4.0,75,0.00,,CLR,0.00,0.00,VWS V14.00,2013-07-01 07:49:00,
2013-07-01 02:50:00,59.8,51.9,30.06,NNW,343,3.0,4.0,75,0.00,,CLR,0.00,0.00,VWS V14.00,2013-07-01 07:50:00,
2013-07-01 02:53:00,59.7,51.8,30.06,NNW,343,3.0,5.0,75,0.00,,CLR,0.00,0.00,VWS V14.00,2013-07-01 07:53:00,
2013-07-01 02:54:00,59.7,51.8,30.06,NNW,343,2.0,3.0,75,0.00,,CLR,0.00,0.00,VWS V14.00,2013-07-01 07:54:00,
2013-07-01 02:55:00,59.7,51.8,30.06,NNW,343,2.0,4.0,75,0.00,,CLR,0.00,0.00,VWS V14.00,2013-07-01 07:55:00,
2013-07-01 02:56:00,59.7,51.8,30.07,NNW,343,3.0,4.0,75,0.00,,CLR,0.00,0.00,VWS V14.00,2013-07-01 07:56:00,
2013-07-01 02:59:00,59.6,51.7,30.06,NNW,343,3.0,4.0,75,0.00,,CLR,0.00,0.00,VWS V14.00,2013-07-01 07:59:00,
2013-07-01 03:00:00,59.6,51.7,30.06,NNW,343,2.0,4.0,75,0.00,,CLR,0.00,0.00,VWS V14.00,2013-07-01 08:00:00,
2013-07-01 03:01:00,59.6,51.7,30.06,NNW,343,3.0,5.0,75,0.00,,CLR,0.00,0.00,VWS V14.00,2013-07-01 08:01:00,
2013-07-01 03:04:00,59.6,52.0,30.06,NNW,343,3.0,3.0,76,0.00,,CLR,0.00,0.00,VWS V14.00,2013-07-01 08:04:00,
2013-07-01 03:05:00,59.6,52.0,30.07,NNW,343,3.0,4.0,76,0.00,,CLR,0.00,0.00,VWS V14.00,2013-07-01 08:05:00,
2013-07-01 03:06:00,59.5,51.9,30.06,NNW,343,2.0,4.0,76,0.00,,CLR,0.00,0.00,VWS V14.00,2013-07-01 08:06:00,
2013-07-01 03:09:00,59.5,51.9,30.06,NNW,343,3.0,3.0,76,0.00,,CLR,0.00,0.00,VWS V14.00,2013-07-01 08:09:00,
2013-07-01 03:10:00,59.5,51.9,30.06,NNW,343,3.0,3.0,76,0.00,,CLR,0.00,0.00,VWS V14.00,2013-07-01 08:10:00,
2013-07-01 03:11:00,59.5,51.9,30.07,NNW,343,3.0,3.0,76,0.00,,CLR,0.00,0.00,VWS V14.00,2013-07-01 08:11:00,
2013-07-01 03:14:00,59.5,51.9,30.06,NNW,343,1.0,3.0,76,0.00,,CLR,0.00,0.00,VWS V14.00,2013-07-01 08:14:00,
2013-07-01 03:15:00,59.5,51.9,30.07,NNW,343,1.0,3.0,76,0.00,,CLR,0.00,0.00,VWS V14.00,2013-07-01 08:15:00,
2013-07-01 03:16:00,59.5,51.9,30.07,NNW,343,3.0,3.0,76,0.00,,CLR,0.00,0.00,VWS V14.00,2013-07-01 08:16:00,
2013-07-01 03:19:00,59.5,51.6,30.06,NNW,343,3.0,3.0,75,0.00,,CLR,0.00,0.00,VWS V14.00,2013-07-01 08:19:00,
2013-07-01 03:20:00,59.5,51.9,30.07,NNW,343,1.0,3.0,76,0.00,,CLR,0.00,0.00,VWS V14.00,2013-07-01 08:20:00,
2013-07-01 03:21:00,59.5,51.9,30.07,NNW,343,2.0,3.0,76,0.00,,CLR,0.00,0.00,VWS V14.00,2013-07-01 08:21:00,
2013-07-01 03:24:00,59.5,51.9,30.07,NNW,343,3.0,4.0,76,0.00,,CLR,0.00,0.00,VWS V14.00,2013-07-01 08:24:00,
2013-07-01 03:25:00,59.5,51.9,30.07,NNW,343,3.0,4.0,76,0.00,,CLR,0.00,0.00,VWS V14.00,2013-07-01 08:25:00,
2013-07-01 03:26:00,59.5,51.9,30.07,NNW,343,1.0,4.0,76,0.00,,CLR,0.00,0.00,VWS V14.00,2013-07-01 08:26:00,
2013-07-01 03:27:00,59.5,51.9,30.06,NNW,343,1.0,4.0,76,0.00,,CLR,0.00,0.00,VWS V14.00,2013-07-01 08:27:00,
2013-07-01 03:29:00,59.5,51.9,30.06,NNW,343,3.0,4.0,76,0.00,,CLR,0.00,0.00,VWS V14.00,2013-07-01 08:29:00,
2013-07-01 03:30:00,59.5,51.9,30.06,NNW,343,2.0,4.0,76,0.00,,CLR,0.00,0.00,VWS V14.00,2013-07-01 08:30:00,
2013-07-01 03:31:00,59.5,51.9,30.07,NNW,343,3.0,4.0,76,0.00,,CLR,0.00,0.00,VWS V14.00,2013-07-01 08:31:00,
2013-07-01 03:32:00,59.5,51.9,30.06,NNW,343,3.0,4.0,76,0.00,,CLR,0.00,0.00,VWS V14.00,2013-07-01 08:32:00,
2013-07-01 03:34:00,59.4,51.8,30.06,NNW,343,1.0,4.0,76,0.00,,CLR,0.00,0.00,VWS V14.00,2013-07-01 08:34:00,
2013-07-01 03:35:00,59.5,51.9,30.06,NNW,343,3.0,4.0,76,0.00,,CLR,0.00,0.00,VWS V14.00,2013-07-01 08:35:00,
2013-07-01 03:36:00,59.5,51.9,30.06,NNW,343,4.0,4.0,76,0.00,,CLR,0.00,0.00,VWS V14.00,2013-07-01 08:36:00,
2013-07-01 03:37:00,59.5,51.9,30.06,NNW,343,2.0,4.0,76,0.00,,CLR,0.00,0.00,VWS V14.00,2013-07-01 08:37:00,
2013-07-01 03:40:00,59.4,51.8,30.06,NNW,343,4.0,4.0,76,0.00,,CLR,0.00,0.00,VWS V14.00,2013-07-01 08:40:00,
2013-07-01 03:42:00,59.4,51.8,30.07,NNW,343,3.0,4.0,76,0.00,,CLR,0.00,0.00,VWS V14.00,2013-07-01 08:42:00,
2013-07-01 03:45:00,59.4,51.8,30.07,NNW,343,3.0,3.0,76,0.00,,CLR,0.00,0.00,VWS V14.00,2013-07-01 08:45:00,
2013-07-01 03:47:00,59.4,51.8,30.07,NNW,343,1.0,4.0,76,0.00,,CLR,0.00,0.00,VWS V14.00,2013-07-01 08:47:00,
2013-07-01 03:48:00,59.4,51.8,30.07,NNW,343,3.0,4.0,76,0.00,,CLR,0.00,0.00,VWS V14.00,2013-07-01 08:48:00,
2013-07-01 03:50:00,59.4,51.8,30.07,NNW,343,3.0,3.0,76,0.00,,CLR,0.00,0.00,VWS V14.00,2013-07-01 08:50:00,
2013-07-01 03:52:00,59.4,51.8,30.06,NNW,342,2.0,4.0,76,0.00,,CLR,0.00,0.00,VWS V14.00,2013-07-01 08:52:00,
2013-07-01 03:53:00,59.4,51.8,30.07,NNW,342,3.0,4.0,76,0.00,,CLR,0.00,0.00,VWS V14.00,2013-07-01 08:53:00,
2013-07-01 03:55:00,59.4,51.8,30.07,NNW,338,3.0,4.0,76,0.00,,CLR,0.00,0.00,VWS V14.00,2013-07-01 08:55:00,
2013-07-01 03:56:00,59.4,51.8,30.07,NNW,338,4.0,4.0,76,0.00,,CLR,0.00,0.00,VWS V14.00,2013-07-01 08:56:00,
2013-07-01 03:57:00,59.4,51.8,30.07,NNW,337,3.0,4.0,76,0.00,,CLR,0.00,0.00,VWS V14.00,2013-07-01 08:57:00,
2013-07-01 03:58:00,59.4,51.8,30.07,NNW,333,4.0,5.0,76,0.00,,CLR,0.00,0.00,VWS V14.00,2013-07-01 08:58:00,
2013-07-01 04:00:00,59.4,51.8,30.07,NNW,333,2.0,5.0,76,0.00,,CLR,0.00,0.00,VWS V14.00,2013-07-01 09:00:00,
2013-07-01 04:01:00,59.4,51.8,30.07,NNW,331,2.0,5.0,76,0.00,,CLR,0.00,0.00,VWS V14.00,2013-07-01 09:01:00,
2013-07-01 04:02:00,59.4,51.8,30.07,NNW,329,3.0,5.0,76,0.00,,CLR,0.00,0.00,VWS V14.00,2013-07-01 09:02:00,
2013-07-01 04:03:00,59.4,51.8,30.07,NNW,328,3.0,5.0,76,0.00,,CLR,0.00,0.00,VWS V14.00,2013-07-01 09:03:00,
2013-07-01 04:05:00,59.4,51.8,30.07,NNW,328,3.0,5.0,76,0.00,,CLR,0.00,0.00,VWS V14.00,2013-07-01 09:05:00,
2013-07-01 04:06:00,59.4,51.8,30.07,NNW,328,3.0,4.0,76,0.00,,CLR,0.00,0.00,VWS V14.00,2013-07-01 09:06:00,
2013-07-01 04:08:00,59.3,51.8,30.07,NNW,328,2.0,4.0,76,0.00,,CLR,0.00,0.00,VWS V14.00,2013-07-01 09:08:00,
2013-07-01 04:09:00,59.3,51.8,30.07,NNW,328,2.0,4.0,76,0.00,,CLR,0.00,0.00,VWS V14.00,2013-07-01 09:09:00,
2013-07-01 04:10:00,59.3,51.8,30.07,NNW,328,3.0,4.0,76,0.00,,CLR,0.00,0.00,VWS V14.00,2013-07-01 09:10:00,
2013-07-01 04:11:00,59.3,51.8,30.07,NNW,328,3.0,4.0,76,0.00,,CLR,0.00,0.00,VWS V14.00,2013-07-01 09:11:00,
2013-07-01 04:13:00,59.2,51.7,30.07,NNW,328,3.0,4.0,76,0.00,,CLR,0.00,0.00,VWS V14.00,2013-07-01 09:13:00,
2013-07-01 04:14:00,59.2,51.7,30.07,NNW,329,3.0,3.0,76,0.00,,CLR,0.00,0.00,VWS V14.00,2013-07-01 09:14:00,
2013-07-01 04:15:00,59.2,51.7,30.07,NNW,328,3.0,4.0,76,0.00,,CLR,0.00,0.00,VWS V14.00,2013-07-01 09:15:00,
2013-07-01 04:16:00,59.1,51.9,30.07,NNW,328,1.0,4.0,77,0.00,,CLR,0.00,0.00,VWS V14.00,2013-07-01 09:16:00,
2013-07-01 04:18:00,59.0,51.8,30.07,NNW,328,2.0,4.0,77,0.00,,CLR,0.00,0.00,VWS V14.00,2013-07-01 09:18:00,
2013-07-01 04:19:00,59.0,51.8,30.07,NNW,328,3.0,4.0,77,0.00,,CLR,0.00,0.00,VWS V14.00,2013-07-01 09:19:00,
2013-07-01 04:20:00,59.0,51.8,30.07,NNW,329,2.0,4.0,77,0.00,,CLR,0.00,0.00,VWS V14.00,2013-07-01 09:20:00,
2013-07-01 04:21:00,59.0,51.8,30.07,NNW,328,3.0,4.0,77,0.00,,CLR,0.00,0.00,VWS V14.00,2013-07-01 09:21:00,
2013-07-01 04:23:00,58.9,51.7,30.07,NNW,328,3.0,4.0,77,0.00,,CLR,0.00,0.00,VWS V14.00,2013-07-01 09:23:00,
2013-07-01 04:24:00,58.9,51.7,30.07,NNW,328,2.0,3.0,77,0.00,,CLR,0.00,0.00,VWS V14.00,2013-07-01 09:24:00,
2013-07-01 04:25:00,58.9,51.7,30.07,NNW,328,3.0,4.0,77,0.00,,CLR,0.00,0.00,VWS V14.00,2013-07-01 09:25:00,
2013-07-01 04:26:00,58.9,51.7,30.07,NNW,329,0.0,3.0,77,0.00,,CLR,0.00,0.00,VWS V14.00,2013-07-01 09:26:00,
2013-07-01 04:27:00,58.9,51.7,30.07,NNW,328,1.0,3.0,77,0.00,,CLR,0.00,0.00,VWS V14.00,2013-07-01 09:27:00,
2013-07-01 04:28:00,58.9,51.7,30.07,NNW,328,3.0,4.0,77,0.00,,CLR,0.00,0.00,VWS V14.00,2013-07-01 09:28:00,
2013-07-01 04:29:00,58.8,51.6,30.07,NNW,328,4.0,5.0,77,0.00,,CLR,0.00,0.00,VWS V14.00,2013-07-01 09:29:00,
2013-07-01 04:30:00,58.9,51.7,30.07,NNW,329,3.0,5.0,77,0.00,,CLR,0.00,0.00,VWS V14.00,2013-07-01 09:30:00,
2013-07-01 04:32:00,58.9,51.7,30.07,NNW,328,3.0,5.0,77,0.00,,CLR,0.00,0.00,VWS V14.00,2013-07-01 09:32:00,
2013-07-01 04:33:00,58.9,51.4,30.07,NNW,328,2.0,5.0,76,0.00,,CLR,0.00,0.00,VWS V14.00,2013-07-01 09:33:00,
2013-07-01 04:35:00,58.9,51.4,30.07,NNW,328,3.0,3.0,76,0.00,,CLR,0.00,0.00,VWS V14.00,2013-07-01 09:35:00,
2013-07-01 04:37:00,59.0,51.5,30.07,NNW,328,2.0,3.0,76,0.00,,CLR,0.00,0.00,VWS V14.00,2013-07-01 09:37:00,
2013-07-01 04:38:00,59.0,51.5,30.07,NNW,328,2.0,3.0,76,0.00,,CLR,0.00,0.00,VWS V14.00,2013-07-01 09:38:00,
2013-07-01 04:39:00,59.0,51.5,30.07,NNW,329,3.0,3.0,76,0.00,,CLR,0.00,0.00,VWS V14.00,2013-07-01 09:39:00,
2013-07-01 04:40:00,59.0,51.5,30.07,NNW,329,2.0,4.0,76,0.00,,CLR,0.00,0.00,VWS V14.00,2013-07-01 09:40:00,
2013-07-01 04:41:00,59.0,51.5,30.07,NNW,328,3.0,4.0,76,0.00,,CLR,0.00,0.00,VWS V14.00,2013-07-01 09:41:00,
2013-07-01 04:42:00,59.0,51.5,30.07,NNW,328,2.0,4.0,76,0.00,,CLR,0.00,0.00,VWS V14.00,2013-07-01 09:42:00,
2013-07-01 04:43:00,59.1,51.5,30.07,NNW,329,3.0,4.0,76,0.00,,CLR,0.00,0.00,VWS V14.00,2013-07-01 09:43:00,
2013-07-01 04:44:00,59.0,51.5,30.07,NNW,328,2.0,3.0,76,0.00,,CLR,0.00,0.00,VWS V14.00,2013-07-01 09:44:00,
2013-07-01 04:45:00,59.1,51.5,30.07,NNW,328,2.0,4.0,76,0.00,,CLR,0.00,0.00,VWS V14.00,2013-07-01 09:45:00,
2013-07-01 04:46:00,59.1,51.5,30.07,NNW,328,2.0,3.0,76,0.00,,CLR,0.00,0.00,VWS V14.00,2013-07-01 09:46:00,
2013-07-01 04:47:00,59.0,51.5,30.07,NNW,328,2.0,4.0,76,0.00,,CLR,0.00,0.00,VWS V14.00,2013-07-01 09:47:00,
2013-07-01 04:48:00,59.0,51.5,30.07,NNW,329,3.0,4.0,76,0.00,,CLR,0.00,0.00,VWS V14.00,2013-07-01 09:48:00,
2013-07-01 04:49:00,59.0,51.5,30.07,NNW,328,2.0,3.0,76,0.00,,CLR,0.00,0.00,VWS V14.00,2013-07-01 09:49:00,
2013-07-01 04:50:00,59.0,51.5,30.07,NNW,328,3.0,4.0,76,0.00,,CLR,0.00,0.00,VWS V14.00,2013-07-01 09:50:00,
2013-07-01 04:51:00,59.0,51.8,30.07,NNW,328,2.0,3.0,77,0.00,,CLR,0.00,0.00,VWS V14.00,2013-07-01 09:51:00,
2013-07-01 04:52:00,58.9,51.7,30.07,NNW,329,1.0,3.0,77,0.00,,CLR,0.00,0.00,VWS V14.00,2013-07-01 09:52:00,
2013-07-01 04:53:00,58.9,51.7,30.08,NNW,328,3.0,3.0,77,0.00,,CLR,0.00,0.00,VWS V14.00,2013-07-01 09:53:00,
2013-07-01 04:55:00,58.9,51.7,30.08,NNW,328,3.0,3.0,77,0.00,,CLR,0.00,0.00,VWS V14.00,2013-07-01 09:55:00,
2013-07-01 04:56:00,58.9,51.7,30.08,NNW,328,1.0,3.0,77,0.00,,CLR,0.00,0.00,VWS V14.00,2013-07-01 09:56:00,
2013-07-01 04:57:00,58.8,51.6,30.08,NNW,328,3.0,3.0,77,0.00,,CLR,0.00,0.00,VWS V14.00,2013-07-01 09:57:00,
2013-07-01 04:58:00,58.8,51.6,30.08,NNW,329,3.0,3.0,77,0.00,,CLR,0.00,0.00,VWS V14.00,2013-07-01 09:58:00,
2013-07-01 05:00:00,58.7,51.5,30.08,NNW,328,2.0,5.0,77,0.00,,CLR,0.00,0.00,VWS V14.00,2013-07-01 10:00:00,
2013-07-01 05:01:00,58.7,51.5,30.08,NNW,329,3.0,5.0,77,0.00,,CLR,0.00,0.00,VWS V14.00,2013-07-01 10:01:00,
2013-07-01 05:02:00,58.7,51.5,30.08,NNW,329,3.0,5.0,77,0.00,,CLR,0.00,0.00,VWS V14.00,2013-07-01 10:02:00,
2013-07-01 05:03:00,58.6,51.4,30.08,NNW,329,4.0,5.0,77,0.00,,CLR,0.00,0.00,VWS V14.00,2013-07-01 10:03:00,
2013-07-01 05:05:00,58.6,51.4,30.08,NNW,329,2.0,4.0,77,0.00,,CLR,0.00,0.00,VWS V14.00,2013-07-01 10:05:00,
2013-07-01 05:06:00,58.6,51.4,30.08,NNW,328,3.0,4.0,77,0.00,,CLR,0.00,0.00,VWS V14.00,2013-07-01 10:06:00,
2013-07-01 05:07:00,58.6,51.4,30.08,NNW,328,0.0,4.0,77,0.00,,CLR,0.00,0.00,VWS V14.00,2013-07-01 10:07:00,
2013-07-01 05:08:00,58.6,51.4,30.08,NNW,329,3.0,4.0,77,0.00,,CLR,0.00,0.00,VWS V14.00,2013-07-01 10:08:00,
2013-07-01 05:10:00,58.6,51.4,30.08,NNW,328,3.0,4.0,77,0.00,,CLR,0.00,0.00,VWS V14.00,2013-07-01 10:10:00,
2013-07-01 05:11:00,58.6,51.4,30.08,NNW,328,3.0,5.0,77,0.00,,CLR,0.00,0.00,VWS V14.00,2013-07-01 10:11:00,
2013-07-01 05:12:00,58.6,51.4,30.08,NNW,328,2.0,5.0,77,0.00,,CLR,0.00,0.00,VWS V14.00,2013-07-01 10:12:00,
2013-07-01 05:13:00,58.6,51.4,30.08,NNW,329,3.0,3.0,77,0.00,,CLR,0.00,0.00,VWS V14.00,2013-07-01 10:13:00,
2013-07-01 05:15:00,58.6,51.4,30.08,NNW,328,3.0,5.0,77,0.00,,CLR,0.00,0.00,VWS V14.00,2013-07-01 10:15:00,
2013-07-01 05:16:00,58.6,51.4,30.08,NNW,328,4.0,4.0,77,0.00,,CLR,0.00,0.00,VWS V14.00,2013-07-01 10:16:00,
2013-07-01 05:17:00,58.6,51.4,30.08,NNW,328,1.0,4.0,77,0.00,,CLR,0.00,0.00,VWS V14.00,2013-07-01 10:17:00,
2013-07-01 05:18:00,58.5,51.3,30.08,NNW,328,4.0,4.0,77,0.00,,CLR,0.00,0.00,VWS V14.00,2013-07-01 10:18:00,
2013-07-01 05:20:00,58.5,51.3,30.08,NNW,329,2.0,4.0,77,0.00,,CLR,0.00,0.00,VWS V14.00,2013-07-01 10:20:00,
2013-07-01 05:21:00,58.5,51.3,30.08,NNW,328,3.0,4.0,77,0.00,,CLR,0.00,0.00,VWS V14.00,2013-07-01 10:21:00,
2013-07-01 05:22:00,58.5,51.3,30.08,NNW,329,3.0,4.0,77,0.00,,CLR,0.00,0.00,VWS V14.00,2013-07-01 10:22:00,
2013-07-01 05:25:00,58.5,51.3,30.08,NNW,328,3.0,4.0,77,0.00,,CLR,0.00,0.00,VWS V14.00,2013-07-01 10:25:00,
2013-07-01 05:27:00,58.4,51.6,30.08,NNW,328,3.0,4.0,78,0.00,,CLR,0.00,0.00,VWS V14.00,2013-07-01 10:27:00,
2013-07-01 05:28:00,58.4,51.6,30.08,NNW,329,2.0,4.0,78,0.00,,CLR,0.00,0.00,VWS V14.00,2013-07-01 10:28:00,
2013-07-01 05:30:00,58.4,51.6,30.08,NNW,328,0.0,4.0,78,0.00,,CLR,0.00,0.00,VWS V14.00,2013-07-01 10:30:00,
2013-07-01 05:32:00,58.4,51.6,30.08,NNW,328,3.0,4.0,78,0.00,,CLR,0.00,0.00,VWS V14.00,2013-07-01 10:32:00,
2013-07-01 05:33:00,58.4,51.6,30.08,NNW,328,3.0,4.0,78,0.00,,CLR,0.00,0.00,VWS V14.00,2013-07-01 10:33:00,
2013-07-01 05:34:00,58.4,51.6,30.08,NNW,328,3.0,3.0,78,0.00,,CLR,0.00,0.00,VWS V14.00,2013-07-01 10:34:00,
2013-07-01 05:35:00,58.4,51.6,30.08,NNW,328,1.0,3.0,78,0.00,,CLR,0.00,0.00,VWS V14.00,2013-07-01 10:35:00,
2013-07-01 05:38:00,58.4,51.6,30.08,NNW,328,0.0,4.0,78,0.00,,CLR,0.00,0.00,VWS V14.00,2013-07-01 10:38:00,
2013-07-01 05:39:00,58.4,51.6,30.08,NNW,328,2.0,2.0,78,0.00,,CLR,0.00,0.00,VWS V14.00,2013-07-01 10:39:00,
2013-07-01 05:40:00,58.3,51.5,30.08,NNW,329,1.0,3.0,78,0.00,,CLR,0.00,0.00,VWS V14.00,2013-07-01 10:40:00,
2013-07-01 05:43:00,58.3,51.5,30.08,NNW,328,2.0,4.0,78,0.00,,CLR,0.00,0.00,VWS V14.00,2013-07-01 10:43:00,
2013-07-01 05:44:00,58.3,51.5,30.08,NNW,328,2.0,2.0,78,0.00,,CLR,0.00,0.00,VWS V14.00,2013-07-01 10:44:00,
2013-07-01 05:45:00,58.3,51.5,30.08,NNW,328,1.0,3.0,78,0.00,,CLR,0.00,0.00,VWS V14.00,2013-07-01 10:45:00,
2013-07-01 05:48:00,58.2,51.4,30.08,NNW,328,2.0,3.0,78,0.00,,CLR,0.00,0.00,VWS V14.00,2013-07-01 10:48:00,
2013-07-01 05:49:00,58.2,51.4,30.08,NNW,328,2.0,2.0,78,0.00,,CLR,0.00,0.00,VWS V14.00,2013-07-01 10:49:00,
2013-07-01 05:50:00,58.3,51.5,30.08,NNW,328,1.0,3.0,78,0.00,,CLR,0.00,0.00,VWS V14.00,2013-07-01 10:50:00,
2013-07-01 05:51:00,58.2,51.4,30.08,NNW,328,3.0,3.0,78,0.00,,CLR,0.00,5.00,VWS V14.00,2013-07-01 10:51:00,
2013-07-01 05:53:00,58.2,51.4,30.08,NNW,328,2.0,3.0,78,0.00,,CLR,0.00,7.00,VWS V14.00,2013-07-01 10:53:00,
2013-07-01 05:54:00,58.2,51.4,30.08,NNW,328,3.0,3.0,78,0.00,,CLR,0.00,9.00,VWS V14.00,2013-07-01 10:54:00,
2013-07-01 05:55:00,58.2,51.4,30.08,NNW,329,2.0,3.0,78,0.00,,CLR,0.00,7.00,VWS V14.00,2013-07-01 10:55:00,
2013-07-01 05:56:00,58.3,51.5,30.09,NNW,328,1.0,4.0,78,0.00,,CLR,0.00,11.00,VWS V14.00,2013-07-01 10:56:00,
2013-07-01 05:58:00,58.2,51.4,30.08,NNW,328,1.0,4.0,78,0.00,,CLR,0.00,14.00,VWS V14.00,2013-07-01 10:58:00,
2013-07-01 05:59:00,58.2,51.4,30.08,NNW,328,2.0,3.0,78,0.00,,CLR,0.00,14.00,VWS V14.00,2013-07-01 10:59:00,
2013-07-01 06:00:00,58.2,51.4,30.09,NNW,328,3.0,4.0,78,0.00,,CLR,0.00,14.00,VWS V14.00,2013-07-01 11:00:00,
2013-07-01 06:01:00,58.3,51.5,30.08,NNW,328,3.0,4.0,78,0.00,,CLR,0.00,16.00,VWS V14.00,2013-07-01 11:01:00,
2013-07-01 06:03:00,58.3,51.5,30.09,NNW,329,1.0,4.0,78,0.00,,CLR,0.00,16.00,VWS V14.00,2013-07-01 11:03:00,
2013-07-01 06:05:00,58.3,51.5,30.09,NNW,329,4.0,4.0,78,0.00,,CLR,0.00,16.00,VWS V14.00,2013-07-01 11:05:00,
2013-07-01 06:06:00,58.3,51.5,30.09,NNW,329,3.0,4.0,78,0.00,,CLR,0.00,18.00,VWS V14.00,2013-07-01 11:06:00,
2013-07-01 06:08:00,58.3,51.5,30.09,NNW,328,3.0,4.0,78,0.00,,CLR,0.00,19.00,VWS V14.00,2013-07-01 11:08:00,
2013-07-01 06:10:00,58.3,51.5,30.09,NNW,328,2.0,5.0,78,0.00,,CLR,0.00,19.00,VWS V14.00,2013-07-01 11:10:00,
2013-07-01 06:11:00,58.4,51.6,30.09,NNW,329,3.0,5.0,78,0.00,,CLR,0.00,19.00,VWS V14.00,2013-07-01 11:11:00,
2013-07-01 06:12:00,58.4,51.6,30.09,NNW,328,3.0,5.0,78,0.00,,CLR,0.00,21.00,VWS V14.00,2013-07-01 11:12:00,
2013-07-01 06:14:00,58.4,51.6,30.09,NNW,328,2.0,2.0,78,0.00,,CLR,0.00,21.00,VWS V14.00,2013-07-01 11:14:00,
2013-07-01 06:15:00,58.4,51.6,30.09,NNW,329,2.0,4.0,78,0.00,,CLR,0.00,23.00,VWS V14.00,2013-07-01 11:15:00,
2013-07-01 06:16:00,58.5,51.7,30.09,NNW,329,2.0,4.0,78,0.00,,CLR,0.00,23.00,VWS V14.00,2013-07-01 11:16:00,
2013-07-01 06:17:00,58.5,51.7,30.09,NNW,329,3.0,4.0,78,0.00,,CLR,0.00,25.00,VWS V14.00,2013-07-01 11:17:00,
2013-07-01 06:19:00,58.5,51.7,30.09,NNW,328,2.0,3.0,78,0.00,,CLR,0.00,26.00,VWS V14.00,2013-07-01 11:19:00,
2013-07-01 06:20:00,58.6,51.8,30.09,NNW,328,1.0,3.0,78,0.00,,CLR,0.00,26.00,VWS V14.00,2013-07-01 11:20:00,
2013-07-01 06:21:00,58.6,51.8,30.09,NNW,328,3.0,3.0,78,0.00,,CLR,0.00,28.00,VWS V14.00,2013-07-01 11:21:00,
2013-07-01 06:22:00,58.6,51.8,30.09,NNW,328,1.0,4.0,78,0.00,,CLR,0.00,32.00,VWS V14.00,2013-07-01 11:22:00,
2013-07-01 06:25:00,58.7,51.9,30.09,NNW,329,2.0,4.0,78,0.00,,CLR,0.00,39.00,VWS V14.00,2013-07-01 11:25:00,
2013-07-01 06:26:00,58.8,51.6,30.09,NNW,329,3.0,4.0,77,0.00,,CLR,0.00,42.00,VWS V14.00,2013-07-01 11:26:00,
2013-07-01 06:27:00,58.9,51.7,30.09,NNW,328,2.0,4.0,77,0.00,,CLR,0.00,44.00,VWS V14.00,2013-07-01 11:27:00,
2013-07-01 06:30:00,59.0,51.8,30.09,NNW,328,2.0,3.0,77,0.00,,CLR,0.00,40.00,VWS V14.00,2013-07-01 11:30:00,
2013-07-01 06:31:00,59.1,51.9,30.09,NNW,329,3.0,3.0,77,0.00,,CLR,0.00,37.00,VWS V14.00,2013-07-01 11:31:00,
2013-07-01 06:32:00,59.1,51.9,30.09,NNW,328,0.0,3.0,77,0.00,,CLR,0.00,35.00,VWS V14.00,2013-07-01 11:32:00,
2013-07-01 06:35:00,59.3,52.1,30.09,NNW,328,1.0,2.0,77,0.00,,CLR,0.00,40.00,VWS V14.00,2013-07-01 11:35:00,
2013-07-01 06:36:00,59.3,52.1,30.09,NNW,328,2.0,4.0,77,0.00,,CLR,0.00,46.00,VWS V14.00,2013-07-01 11:36:00,
2013-07-01 06:37:00,59.3,52.1,30.09,NNW,328,0.0,4.0,77,0.00,,CLR,0.00,46.00,VWS V14.00,2013-07-01 11:37:00,
2013-07-01 06:40:00,59.5,52.3,30.09,NNW,327,2.0,2.0,77,0.00,,CLR,0.00,60.00,VWS V14.00,2013-07-01 11:40:00,
2013-07-01 06:41:00,59.5,52.3,30.09,NNW,329,1.0,3.0,77,0.00,,CLR,0.00,67.00,VWS V14.00,2013-07-01 11:41:00,
2013-07-01 06:42:00,59.6,52.4,30.09,NNW,329,0.0,3.0,77,0.00,,CLR,0.00,67.00,VWS V14.00,2013-07-01 11:42:00,
2013-07-01 06:43:00,59.6,52.4,30.09,NNW,329,0.0,3.0,77,0.00,,CLR,0.00,72.00,VWS V14.00,2013-07-01 11:43:00,
2013-07-01 06:45:00,59.8,52.2,30.09,NNW,328,2.0,3.0,76,0.00,,CLR,0.00,81.00,VWS V14.00,2013-07-01 11:45:00,
2013-07-01 06:47:00,59.9,52.3,30.09,NNW,328,0.0,3.0,76,0.00,,CLR,0.00,84.00,VWS V14.00,2013-07-01 11:47:00,
2013-07-01 06:48:00,60.0,52.4,30.09,NNW,328,0.0,3.0,76,0.00,,CLR,0.00,86.00,VWS V14.00,2013-07-01 11:48:00,
2013-07-01 06:50:00,60.0,52.4,30.09,NNW,329,0.0,3.0,76,0.00,,CLR,0.00,84.00,VWS V14.00,2013-07-01 11:50:00,
2013-07-01 06:51:00,60.3,52.7,30.10,NNW,328,3.0,4.0,76,0.00,,CLR,0.00,84.00,VWS V14.00,2013-07-01 11:51:00,
2013-07-01 06:52:00,60.4,52.8,30.09,NNW,328,0.0,4.0,76,0.00,,CLR,0.00,88.00,VWS V14.00,2013-07-01 11:52:00,
2013-07-01 06:53:00,60.4,52.8,30.09,NNW,328,1.0,4.0,76,0.00,,CLR,0.00,91.00,VWS V14.00,2013-07-01 11:53:00,
2013-07-01 06:55:00,60.5,52.9,30.09,NNW,328,2.0,4.0,76,0.00,,CLR,0.00,91.00,VWS V14.00,2013-07-01 11:55:00,
2013-07-01 06:56:00,60.7,52.7,30.09,NNW,328,1.0,3.0,75,0.00,,CLR,0.00,111.00,VWS V14.00,2013-07-01 11:56:00,
2013-07-01 06:57:00,60.9,52.9,30.09,NNW,328,3.0,3.0,75,0.00,,CLR,0.00,118.00,VWS V14.00,2013-07-01 11:57:00,
2013-07-01 06:58:00,60.9,52.9,30.09,NNW,328,2.0,3.0,75,0.00,,CLR,0.00,121.00,VWS V14.00,2013-07-01 11:58:00,
2013-07-01 06:59:00,61.0,53.0,30.09,NNW,328,1.0,1.0,75,0.00,,CLR,0.00,125.00,VWS V14.00,2013-07-01 11:59:00,
2013-07-01 07:00:00,61.0,53.0,30.09,NNW,329,1.0,3.0,75,0.00,,CLR,0.00,121.00,VWS V14.00,2013-07-01 12:00:00,
2013-07-01 07:02:00,61.3,53.0,30.10,NNW,328,3.0,4.0,74,0.00,,CLR,0.00,121.00,VWS V14.00,2013-07-01 12:02:00,
2013-07-01 07:03:00,61.4,53.0,30.10,NNW,329,1.0,4.0,74,0.00,,CLR,0.00,120.00,VWS V14.00,2013-07-01 12:03:00,
2013-07-01 07:04:00,61.5,53.2,30.10,NNW,328,2.0,2.0,74,0.00,,CLR,0.00,118.00,VWS V14.00,2013-07-01 12:04:00,
2013-07-01 07:05:00,61.6,53.2,30.09,NNW,328,2.0,3.0,74,0.00,,CLR,0.00,116.00,VWS V14.00,2013-07-01 12:05:00,
2013-07-01 07:08:00,61.8,53.1,30.10,North,355,2.0,6.0,73,0.00,,CLR,0.00,118.00,VWS V14.00,2013-07-01 12:08:00,
2013-07-01 07:09:00,61.9,53.5,30.10,NNW,340,4.0,4.0,74,0.00,,CLR,0.00,123.00,VWS V14.00,2013-07-01 12:09:00,
2013-07-01 07:10:00,62.0,53.3,30.10,NNW,339,3.0,4.0,73,0.00,,CLR,0.00,125.00,VWS V14.00,2013-07-01 12:10:00,
2013-07-01 07:13:00,62.1,53.3,30.10,North,355,3.0,6.0,73,0.00,,CLR,0.00,135.00,VWS V14.00,2013-07-01 12:13:00,
2013-07-01 07:14:00,62.2,53.5,30.10,North,355,1.0,3.0,73,0.00,,CLR,0.00,146.00,VWS V14.00,2013-07-01 12:14:00,
2013-07-01 07:15:00,62.2,53.5,30.10,North,355,2.0,3.0,73,0.00,,CLR,0.00,149.00,VWS V14.00,2013-07-01 12:15:00,
2013-07-01 07:18:00,62.5,54.1,30.10,North,350,4.0,4.0,74,0.00,,CLR,0.00,158.00,VWS V14.00,2013-07-01 12:18:00,
2013-07-01 07:19:00,62.6,54.2,30.09,NNW,345,2.0,4.0,74,0.00,,CLR,0.00,155.00,VWS V14.00,2013-07-01 12:19:00,
2013-07-01 07:20:00,62.7,54.3,30.10,NNW,344,2.0,4.0,74,0.00,,CLR,0.00,153.00,VWS V14.00,2013-07-01 12:20:00,
2013-07-01 07:23:00,63.0,54.2,30.10,NNW,332,3.0,5.0,73,0.00,,CLR,0.00,171.00,VWS V14.00,2013-07-01 12:23:00,
2013-07-01 07:24:00,63.1,54.3,30.10,NNW,331,4.0,5.0,73,0.00,,CLR,0.00,185.00,VWS V14.00,2013-07-01 12:24:00,
2013-07-01 07:25:00,63.3,54.5,30.10,NNW,332,3.0,5.0,73,0.00,,CLR,0.00,190.00,VWS V14.00,2013-07-01 12:25:00,
2013-07-01 07:28:00,63.7,54.9,30.10,NNW,346,4.0,5.0,73,0.00,,CLR,0.00,220.00,VWS V14.00,2013-07-01 12:28:00,
2013-07-01 07:29:00,63.8,55.0,30.10,NW,326,6.0,6.0,73,0.00,,CLR,0.00,225.00,VWS V14.00,2013-07-01 12:29:00,
2013-07-01 07:30:00,63.7,54.9,30.10,NNW,346,4.0,5.0,73,0.00,,CLR,0.00,220.00,VWS V14.00,2013-07-01 12:30:00,
2013-07-01 07:31:00,64.0,55.2,30.10,NNW,333,4.0,6.0,73,0.00,,CLR,0.00,230.00,VWS V14.00,2013-07-01 12:31:00,
2013-07-01 07:34:00,64.5,55.7,30.10,NNW,331,3.0,3.0,73,0.00,,CLR,0.00,229.00,VWS V14.00,2013-07-01 12:34:00,
2013-07-01 07:35:00,64.7,55.9,30.10,NNW,331,1.0,5.0,73,0.00,,CLR,0.00,230.00,VWS V14.00,2013-07-01 12:35:00,
2013-07-01 07:36:00,64.8,56.0,30.10,NNW,330,1.0,5.0,73,0.00,,CLR,0.00,227.00,VWS V14.00,2013-07-01 12:36:00,
2013-07-01 07:39:00,65.3,56.0,30.10,NNW,331,0.0,3.0,72,0.00,,CLR,0.00,229.00,VWS V14.00,2013-07-01 12:39:00,
2013-07-01 07:40:00,65.4,56.2,30.10,NNW,330,2.0,3.0,72,0.00,,CLR,0.00,229.00,VWS V14.00,2013-07-01 12:40:00,
2013-07-01 07:41:00,65.5,56.6,30.10,NNW,330,3.0,3.0,73,0.00,,CLR,0.00,230.00,VWS V14.00,2013-07-01 12:41:00,
2013-07-01 07:45:00,66.0,56.7,30.10,NNW,329,4.0,4.0,72,0.00,,CLR,0.00,246.00,VWS V14.00,2013-07-01 12:45:00,
2013-07-01 07:46:00,66.1,56.8,30.10,NNW,330,1.0,4.0,72,0.00,,CLR,0.00,253.00,VWS V14.00,2013-07-01 12:46:00,
2013-07-01 07:50:00,66.5,57.2,30.10,NNW,330,2.0,4.0,72,0.00,,CLR,0.00,237.00,VWS V14.00,2013-07-01 12:50:00,
2013-07-01 07:51:00,66.6,56.9,30.10,NNW,329,1.0,4.0,71,0.00,,CLR,0.00,225.00,VWS V14.00,2013-07-01 12:51:00,
2013-07-01 07:55:00,66.8,57.1,30.10,NNW,330,0.0,4.0,71,0.00,,CLR,0.00,200.00,VWS V14.00,2013-07-01 12:55:00,
2013-07-01 07:56:00,66.8,57.1,30.10,NNW,330,2.0,6.0,71,0.00,,CLR,0.00,213.00,VWS V14.00,2013-07-01 12:56:00,
2013-07-01 08:00:00,67.2,57.1,30.11,NNW,330,2.0,4.0,70,0.00,,CLR,0.00,264.00,VWS V14.00,2013-07-01 13:00:00,
2013-07-01 08:01:00,67.3,57.2,30.11,NNW,330,2.0,4.0,70,0.00,,CLR,0.00,267.00,VWS V14.00,2013-07-01 13:01:00,
2013-07-01 08:02:00,67.4,57.3,30.11,NNW,330,1.0,4.0,70,0.00,,CLR,0.00,272.00,VWS V14.00,2013-07-01 13:02:00,
2013-07-01 08:05:00,67.9,57.4,30.11,NNW,330,4.0,4.0,69,0.00,,CLR,0.00,287.00,VWS V14.00,2013-07-01 13:05:00,
2013-07-01 08:06:00,68.0,57.5,30.11,NNW,330,3.0,4.0,69,0.00,,CLR,0.00,290.00,VWS V14.00,2013-07-01 13:06:00,
2013-07-01 08:07:00,68.2,57.2,30.11,NNW,329,2.0,4.0,68,0.00,,CLR,0.00,295.00,VWS V14.00,2013-07-01 13:07:00,
2013-07-01 08:10:00,68.6,56.8,30.10,NNE,24,5.0,7.0,66,0.00,,CLR,0.00,325.00,VWS V14.00,2013-07-01 13:10:00,
2013-07-01 08:11:00,68.6,56.8,30.10,North,355,5.0,7.0,66,0.00,,CLR,0.00,325.00,VWS V14.00,2013-07-01 13:11:00,
2013-07-01 08:12:00,68.7,56.9,30.11,NNW,330,6.0,7.0,66,0.00,,CLR,0.00,332.00,VWS V14.00,2013-07-01 13:12:00,
2013-07-01 08:15:00,68.9,57.1,30.11,NNW,343,4.0,7.0,66,0.00,,CLR,0.00,343.00,VWS V14.00,2013-07-01 13:15:00,
2013-07-01 08:16:00,69.1,56.8,30.10,NNW,338,4.0,6.0,65,0.00,,CLR,0.00,348.00,VWS V14.00,2013-07-01 13:16:00,
2013-07-01 08:17:00,69.2,57.4,30.10,North,349,6.0,6.0,66,0.00,,CLR,0.00,353.00,VWS V14.00,2013-07-01 13:17:00,
2013-07-01 08:20:00,69.5,56.8,30.10,NNW,338,2.0,8.0,64,0.00,,CLR,0.00,360.00,VWS V14.00,2013-07-01 13:20:00,
2013-07-01 08:21:00,69.7,57.0,30.11,NNW,340,4.0,5.0,64,0.00,,CLR,0.00,371.00,VWS V14.00,2013-07-01 13:21:00,
2013-07-01 08:22:00,69.9,57.2,30.11,North,355,8.0,8.0,64,0.00,,CLR,0.00,374.00,VWS V14.00,2013-07-01 13:22:00,
2013-07-01 08:25:00,70.1,56.5,30.11,NNW,346,2.0,8.0,62,0.00,,CLR,0.00,381.00,VWS V14.00,2013-07-01 13:25:00,
2013-07-01 08:26:00,70.4,56.8,30.11,North,355,6.0,6.0,62,0.00,,CLR,0.00,380.00,VWS V14.00,2013-07-01 13:26:00,
2013-07-01 08:27:00,70.5,56.9,30.11,NNW,342,10.0,10.0,62,0.00,,CLR,0.00,364.00,VWS V14.00,2013-07-01 13:27:00,
2013-07-01 08:28:00,70.6,56.5,30.11,NNW,340,7.0,10.0,61,0.00,,CLR,0.00,364.00,VWS V14.00,2013-07-01 13:28:00,
2013-07-01 08:30:00,70.7,56.6,30.11,NNW,332,3.0,10.0,61,0.00,,CLR,0.00,367.00,VWS V14.00,2013-07-01 13:30:00,
2013-07-01 08:31:00,71.0,56.0,30.11,NW,321,5.0,9.0,59,0.00,,CLR,0.00,362.00,VWS V14.00,2013-07-01 13:31:00,
2013-07-01 08:32:00,71.0,56.0,30.11,NNW,329,7.0,9.0,59,0.00,,CLR,0.00,374.00,VWS V14.00,2013-07-01 13:32:00,
2013-07-01 08:33:00,71.2,56.6,30.11,NW,318,4.0,9.0,60,0.00,,CLR,0.00,392.00,VWS V14.00,2013-07-01 13:33:00,
2013-07-01 08:34:00,71.1,56.5,30.11,NNW,335,3.0,4.0,60,0.00,,CLR,0.00,403.00,VWS V14.00,2013-07-01 13:34:00,
2013-07-01 08:35:00,71.1,56.5,30.11,NW,318,4.0,9.0,60,0.00,,CLR,0.00,403.00,VWS V14.00,2013-07-01 13:35:00,
2013-07-01 08:36:00,71.3,56.7,30.11,NW,325,4.0,9.0,60,0.00,,CLR,0.00,406.00,VWS V14.00,2013-07-01 13:36:00,
2013-07-01 08:38:00,71.5,56.4,30.11,North,355,5.0,9.0,59,0.00,,CLR,0.00,404.00,VWS V14.00,2013-07-01 13:38:00,
2013-07-01 08:39:00,71.5,56.0,30.11,NNW,342,4.0,5.0,58,0.00,,CLR,0.00,404.00,VWS V14.00,2013-07-01 13:39:00,
2013-07-01 08:40:00,71.5,56.0,30.11,NNW,338,4.0,9.0,58,0.00,,CLR,0.00,401.00,VWS V14.00,2013-07-01 13:40:00,
2013-07-01 08:41:00,71.8,57.2,30.11,NNW,340,7.0,8.0,60,0.00,,CLR,0.00,415.00,VWS V14.00,2013-07-01 13:41:00,
2013-07-01 08:43:00,71.9,56.8,30.11,NNW,347,6.0,9.0,59,0.00,,CLR,0.00,415.00,VWS V14.00,2013-07-01 13:43:00,
2013-07-01 08:44:00,72.1,57.0,30.11,NNW,339,3.0,6.0,59,0.00,,CLR,0.00,415.00,VWS V14.00,2013-07-01 13:44:00,
2013-07-01 08:45:00,72.0,56.9,30.11,NW,326,4.0,9.0,59,0.00,,CLR,0.00,408.00,VWS V14.00,2013-07-01 13:45:00,
2013-07-01 08:46:00,72.4,57.3,30.11,North,360,4.0,7.0,59,0.00,,CLR,0.00,441.00,VWS V14.00,2013-07-01 13:46:00,
2013-07-01 08:47:00,72.4,57.3,30.11,NNW,348,5.0,7.0,59,0.00,,CLR,0.00,441.00,VWS V14.00,2013-07-01 13:47:00,
2013-07-01 08:48:00,72.5,57.4,30.11,NNW,333,4.0,7.0,59,0.00,,CLR,0.00,448.00,VWS V14.00,2013-07-01 13:48:00,
2013-07-01 08:49:00,72.6,57.0,30.11,North,360,2.0,4.0,58,0.00,,CLR,0.00,469.00,VWS V14.00,2013-07-01 13:49:00,
2013-07-01 08:50:00,72.6,57.0,30.11,North,11,4.0,7.0,58,0.00,,CLR,0.00,459.00,VWS V14.00,2013-07-01 13:50:00,
2013-07-01 08:51:00,72.7,57.1,30.11,North,355,5.0,5.0,58,0.00,,CLR,0.00,478.00,VWS V14.00,2013-07-01 13:51:00,
2013-07-01 08:52:00,72.7,57.1,30.11,North,11,7.0,7.0,58,0.00,,CLR,0.00,478.00,VWS V14.00,2013-07-01 13:52:00,
2013-07-01 08:53:00,72.7,57.1,30.11,NNW,333,5.0,7.0,58,0.00,,CLR,0.00,480.00,VWS V14.00,2013-07-01 13:53:00,
2013-07-01 08:54:00,72.8,56.7,30.11,North,355,5.0,6.0,57,0.00,,CLR,0.00,454.00,VWS V14.00,2013-07-01 13:54:00,
2013-07-01 08:55:00,72.8,56.7,30.11,NNW,329,4.0,6.0,57,0.00,,CLR,0.00,443.00,VWS V14.00,2013-07-01 13:55:00,
2013-07-01 08:56:00,72.8,57.2,30.11,NNW,331,7.0,7.0,58,0.00,,CLR,0.00,441.00,VWS V14.00,2013-07-01 13:56:00,
2013-07-01 08:57:00,72.8,57.2,30.11,NNW,346,8.0,8.0,58,0.00,,CLR,0.00,441.00,VWS V14.00,2013-07-01 13:57:00,
2013-07-01 08:58:00,72.9,57.3,30.11,NNW,331,4.0,8.0,58,0.00,,CLR,0.00,443.00,VWS V14.00,2013-07-01 13:58:00,
2013-07-01 09:00:00,73.0,57.4,30.11,NNW,338,0.0,7.0,58,0.00,,CLR,0.00,462.00,VWS V14.00,2013-07-01 14:00:00,
2013-07-01 09:02:00,73.1,57.0,30.11,North,355,4.0,7.0,57,0.00,,CLR,0.00,468.00,VWS V14.00,2013-07-01 14:02:00,
2013-07-01 09:03:00,73.2,57.5,30.11,NNW,342,2.0,7.0,58,0.00,,CLR,0.00,469.00,VWS V14.00,2013-07-01 14:03:00,
2013-07-01 09:05:00,73.4,57.3,30.11,NNW,335,5.0,7.0,57,0.00,,CLR,0.00,483.00,VWS V14.00,2013-07-01 14:05:00,
2013-07-01 09:06:00,73.4,57.3,30.11,NNW,333,4.0,7.0,57,0.00,,CLR,0.00,483.00,VWS V14.00,2013-07-01 14:06:00,
2013-07-01 09:07:00,73.5,57.3,30.11,North,355,8.0,8.0,57,0.00,,CLR,0.00,494.00,VWS V14.00,2013-07-01 14:07:00,
2013-07-01 09:08:00,73.5,56.9,30.11,NNW,330,5.0,9.0,56,0.00,,CLR,0.00,497.00,VWS V14.00,2013-07-01 14:08:00,
2013-07-01 09:10:00,73.7,57.0,30.11,NW,325,5.0,8.0,56,0.00,,CLR,0.00,508.00,VWS V14.00,2013-07-01 14:10:00,
2013-07-01 09:11:00,73.7,57.5,30.11,NW,325,2.0,8.0,57,0.00,,CLR,0.00,508.00,VWS V14.00,2013-07-01 14:11:00,
2013-07-01 09:12:00,73.9,57.7,30.11,NNW,348,6.0,8.0,57,0.00,,CLR,0.00,515.00,VWS V14.00,2013-07-01 14:12:00,
2013-07-01 09:13:00,73.9,57.2,30.11,North,360,3.0,8.0,56,0.00,,CLR,0.00,520.00,VWS V14.00,2013-07-01 14:13:00,
2013-07-01 09:15:00,73.9,57.2,30.11,NNW,344,4.0,8.0,56,0.00,,CLR,0.00,520.00,VWS V14.00,2013-07-01 14:15:00,
2013-07-01 09:16:00,74.1,57.4,30.11,NW,326,6.0,6.0,56,0.00,,CLR,0.00,522.00,VWS V14.00,2013-07-01 14:16:00,
2013-07-01 09:18:00,74.4,57.2,30.11,North,355,3.0,7.0,55,0.00,,CLR,0.00,533.00,VWS V14.00,2013-07-01 14:18:00,
2013-07-01 09:20:00,74.5,57.8,30.11,NNW,346,3.0,7.0,56,0.00,,CLR,0.00,534.00,VWS V14.00,2013-07-01 14:20:00,
2013-07-01 09:21:00,74.6,57.9,30.11,NNW,334,5.0,8.0,56,0.00,,CLR,0.00,538.00,VWS V14.00,2013-07-01 14:21:00,
2013-07-01 09:23:00,74.8,57.6,30.10,NNW,329,3.0,9.0,55,0.00,,CLR,0.00,538.00,VWS V14.00,2013-07-01 14:23:00,
2013-07-01 09:24:00,74.9,57.2,30.10,NNW,336,3.0,3.0,54,0.00,,CLR,0.00,538.00,VWS V14.00,2013-07-01 14:24:00,
2013-07-01 09:25:00,74.8,57.6,30.10,NNW,336,3.0,9.0,55,0.00,,CLR,0.00,538.00,VWS V14.00,2013-07-01 14:25:00,
2013-07-01 09:26:00,74.9,58.2,30.10,NNW,338,3.0,7.0,56,0.00,,CLR,0.00,561.00,VWS V14.00,2013-07-01 14:26:00,
2013-07-01 09:28:00,75.1,58.8,30.10,NNW,333,4.0,7.0,57,0.00,,CLR,0.00,568.00,VWS V14.00,2013-07-01 14:28:00,
2013-07-01 09:29:00,75.2,58.4,30.10,North,9,4.0,8.0,56,0.00,,CLR,0.00,568.00,VWS V14.00,2013-07-01 14:29:00,
2013-07-01 09:30:00,75.1,58.8,30.10,NNW,345,8.0,9.0,57,0.00,,CLR,0.00,568.00,VWS V14.00,2013-07-01 14:30:00,
2013-07-01 09:31:00,75.4,57.6,30.10,North,360,5.0,8.0,54,0.00,,CLR,0.00,568.00,VWS V14.00,2013-07-01 14:31:00,
2013-07-01 09:33:00,75.7,57.4,30.10,North,355,5.0,8.0,53,0.00,,CLR,0.00,564.00,VWS V14.00,2013-07-01 14:33:00,
2013-07-01 09:34:00,75.7,57.9,30.10,NNW,339,4.0,5.0,54,0.00,,CLR,0.00,564.00,VWS V14.00,2013-07-01 14:34:00,
2013-07-01 09:35:00,75.7,57.4,30.10,North,355,5.0,8.0,53,0.00,,CLR,0.00,564.00,VWS V14.00,2013-07-01 14:35:00,
2013-07-01 09:36:00,75.8,58.0,30.10,North,355,4.0,9.0,54,0.00,,CLR,0.00,570.00,VWS V14.00,2013-07-01 14:36:00,
2013-07-01 09:37:00,75.8,58.0,30.10,NW,310,3.0,9.0,54,0.00,,CLR,0.00,575.00,VWS V14.00,2013-07-01 14:37:00,
2013-07-01 09:38:00,75.9,57.6,30.10,NNW,334,5.0,9.0,53,0.00,,CLR,0.00,580.00,VWS V14.00,2013-07-01 14:38:00,
2013-07-01 09:39:00,75.9,57.0,30.10,North,350,3.0,5.0,52,0.00,,CLR,0.00,580.00,VWS V14.00,2013-07-01 14:39:00,
2013-07-01 09:40:00,75.9,57.6,30.10,NNW,334,5.0,9.0,53,0.00,,CLR,0.00,580.00,VWS V14.00,2013-07-01 14:40:00,
2013-07-01 09:42:00,76.1,57.8,30.10,NNW,344,5.0,7.0,53,0.00,,CLR,0.00,603.00,VWS V14.00,2013-07-01 14:42:00,
2013-07-01 09:43:00,76.2,57.8,30.10,North,360,4.0,4.0,53,0.00,,CLR,0.00,610.00,VWS V14.00,2013-07-01 14:43:00,
2013-07-01 09:44:00,76.2,57.8,30.10,North,351,5.0,5.0,53,0.00,,CLR,0.00,610.00,VWS V14.00,2013-07-01 14:44:00,
2013-07-01 09:45:00,76.2,57.8,30.10,NNW,336,2.0,7.0,53,0.00,,CLR,0.00,610.00,VWS V14.00,2013-07-01 14:45:00,
2013-07-01 09:47:00,76.4,57.5,30.10,NNW,341,5.0,8.0,52,0.00,,CLR,0.00,617.00,VWS V14.00,2013-07-01 14:47:00,
2013-07-01 09:48:00,76.5,58.1,30.10,North,350,4.0,8.0,53,0.00,,CLR,0.00,621.00,VWS V14.00,2013-07-01 14:48:00,
2013-07-01 09:49:00,76.6,58.2,30.10,NNW,348,5.0,5.0,53,0.00,,CLR,0.00,619.00,VWS V14.00,2013-07-01 14:49:00,
2013-07-01 09:50:00,76.6,58.2,30.10,NNW,333,4.0,8.0,53,0.00,,CLR,0.00,621.00,VWS V14.00,2013-07-01 14:50:00,
2013-07-01 09:52:00,76.9,57.4,30.10,NW,322,3.0,7.0,51,0.00,,CLR,0.00,636.00,VWS V14.00,2013-07-01 14:52:00,
2013-07-01 09:53:00,77.0,58.0,30.10,NW,326,5.0,8.0,52,0.00,,CLR,0.00,638.00,VWS V14.00,2013-07-01 14:53:00,
2013-07-01 09:54:00,77.1,58.1,30.10,NNW,342,4.0,7.0,52,0.00,,CLR,0.00,640.00,VWS V14.00,2013-07-01 14:54:00,
2013-07-01 09:55:00,77.0,58.0,30.10,NNW,338,5.0,8.0,52,0.00,,CLR,0.00,638.00,VWS V14.00,2013-07-01 14:55:00,
2013-07-01 09:57:00,77.3,57.8,30.10,North,355,5.0,8.0,51,0.00,,CLR,0.00,656.00,VWS V14.00,2013-07-01 14:57:00,
2013-07-01 09:59:00,77.3,57.8,30.10,North,351,6.0,7.0,51,0.00,,CLR,0.00,654.00,VWS V14.00,2013-07-01 14:59:00,
2013-07-01 10:00:00,77.3,57.8,30.10,NW,322,5.0,8.0,51,0.00,,CLR,0.00,656.00,VWS V14.00,2013-07-01 15:00:00,
2013-07-01 10:02:00,77.3,58.3,30.10,NW,319,4.0,7.0,52,0.00,,CLR,0.00,668.00,VWS V14.00,2013-07-01 15:02:00,
2013-07-01 10:04:00,77.4,58.4,30.10,North,355,5.0,6.0,52,0.00,,CLR,0.00,671.00,VWS V14.00,2013-07-01 15:04:00,
2013-07-01 10:05:00,77.5,58.5,30.10,NNW,340,3.0,6.0,52,0.00,,CLR,0.00,675.00,VWS V14.00,2013-07-01 15:05:00,
2013-07-01 10:07:00,77.6,58.6,30.10,NNW,341,2.0,6.0,52,0.00,,CLR,0.00,680.00,VWS V14.00,2013-07-01 15:07:00,
2013-07-01 10:09:00,77.7,59.2,30.10,North,355,2.0,5.0,53,0.00,,CLR,0.00,686.00,VWS V14.00,2013-07-01 15:09:00,
2013-07-01 10:10:00,77.8,58.8,30.10,NE,51,0.0,5.0,52,0.00,,CLR,0.00,686.00,VWS V14.00,2013-07-01 15:10:00,
2013-07-01 10:13:00,77.7,58.7,30.10,NW,323,5.0,7.0,52,0.00,,CLR,0.00,689.00,VWS V14.00,2013-07-01 15:13:00,
2013-07-01 10:14:00,77.8,59.3,30.10,NNE,26,4.0,5.0,53,0.00,,CLR,0.00,687.00,VWS V14.00,2013-07-01 15:14:00,
2013-07-01 10:15:00,77.8,58.8,30.10,North,9,0.0,5.0,52,0.00,,CLR,0.00,687.00,VWS V14.00,2013-07-01 15:15:00,
2013-07-01 10:16:00,78.0,59.5,30.10,NNW,337,3.0,5.0,53,0.00,,CLR,0.00,694.00,VWS V14.00,2013-07-01 15:16:00,
2013-07-01 10:18:00,78.1,59.6,30.10,North,350,8.0,9.0,53,0.00,,CLR,0.00,696.00,VWS V14.00,2013-07-01 15:18:00,
2013-07-01 10:19:00,78.2,58.1,30.10,North,11,1.0,7.0,50,0.00,,CLR,0.00,700.00,VWS V14.00,2013-07-01 15:19:00,
2013-07-01 10:20:00,78.2,58.1,30.10,North,355,4.0,7.0,50,0.00,,CLR,0.00,701.00,VWS V14.00,2013-07-01 15:20:00,
2013-07-01 10:21:00,78.2,58.6,30.10,North,355,0.0,7.0,51,0.00,,CLR,0.00,701.00,VWS V14.00,2013-07-01 15:21:00,
2013-07-01 10:23:00,78.2,59.7,30.10,North,5,3.0,3.0,53,0.00,,CLR,0.00,707.00,VWS V14.00,2013-07-01 15:23:00,
2013-07-01 10:25:00,78.2,59.2,30.10,NW,324,2.0,6.0,52,0.00,,CLR,0.00,701.00,VWS V14.00,2013-07-01 15:25:00,
2013-07-01 10:26:00,78.3,60.3,30.10,NW,316,2.0,6.0,54,0.00,,CLR,0.00,700.00,VWS V14.00,2013-07-01 15:26:00,
2013-07-01 10:29:00,78.5,57.8,30.10,North,360,4.0,5.0,49,0.00,,CLR,0.00,714.00,VWS V14.00,2013-07-01 15:29:00,
2013-07-01 10:30:00,78.6,58.4,30.10,North,360,1.0,6.0,50,0.00,,CLR,0.00,714.00,VWS V14.00,2013-07-01 15:30:00,
2013-07-01 10:31:00,78.6,58.4,30.10,North,360,4.0,6.0,50,0.00,,CLR,0.00,719.00,VWS V14.00,2013-07-01 15:31:00,
2013-07-01 10:32:00,78.7,58.0,30.10,NNW,344,3.0,6.0,49,0.00,,CLR,0.00,719.00,VWS V14.00,2013-07-01 15:32:00,
2013-07-01 10:34:00,78.7,58.0,30.10,East,84,2.0,6.0,49,0.00,,CLR,0.00,735.00,VWS V14.00,2013-07-01 15:34:00,
2013-07-01 10:35:00,78.6,57.3,30.10,ENE,57,4.0,6.0,48,0.00,,CLR,0.00,735.00,VWS V14.00,2013-07-01 15:35:00,
2013-07-01 10:36:00,78.5,58.3,30.10,NNW,331,6.0,6.0,50,0.00,,CLR,0.00,738.00,VWS V14.00,2013-07-01 15:36:00,
2013-07-01 10:37:00,78.4,58.2,30.10,NNW,342,6.0,8.0,50,0.00,,CLR,0.00,738.00,VWS V14.00,2013-07-01 15:37:00,
2013-07-01 10:39:00,78.6,57.9,30.10,NNE,15,1.0,8.0,49,0.00,,CLR,0.00,749.00,VWS V14.00,2013-07-01 15:39:00,
2013-07-01 10:40:00,78.7,57.4,30.10,NW,317,3.0,8.0,48,0.00,,CLR,0.00,754.00,VWS V14.00,2013-07-01 15:40:00,
2013-07-01 10:42:00,79.0,57.1,30.10,ENE,58,4.0,9.0,47,0.00,,CLR,0.00,759.00,VWS V14.00,2013-07-01 15:42:00,
2013-07-01 10:43:00,79.1,57.2,30.10,NNE,24,1.0,9.0,47,0.00,,CLR,0.00,763.00,VWS V14.00,2013-07-01 15:43:00,
2013-07-01 10:44:00,79.1,57.8,30.10,North,355,2.0,3.0,48,0.00,,CLR,0.00,765.00,VWS V14.00,2013-07-01 15:44:00,
2013-07-01 10:45:00,79.1,57.8,30.10,North,360,3.0,4.0,48,0.00,,CLR,0.00,768.00,VWS V14.00,2013-07-01 15:45:00,
2013-07-01 10:47:00,79.3,59.1,30.10,NNW,343,1.0,5.0,50,0.00,,CLR,0.00,772.00,VWS V14.00,2013-07-01 15:47:00,
2013-07-01 10:48:00,79.3,59.1,30.10,NNW,341,5.0,6.0,50,0.00,,CLR,0.00,772.00,VWS V14.00,2013-07-01 15:48:00,
2013-07-01 10:50:00,79.4,56.2,30.10,North,9,0.0,9.0,45,0.00,,CLR,0.00,772.00,VWS V14.00,2013-07-01 15:50:00,
2013-07-01 10:51:00,79.5,57.5,30.10,NNE,19,5.0,9.0,47,0.00,,CLR,0.00,772.00,VWS V14.00,2013-07-01 15:51:00,
2013-07-01 10:53:00,79.5,56.9,30.10,East,82,2.0,11.0,46,0.00,,CLR,0.00,770.00,VWS V14.00,2013-07-01 15:53:00,
2013-07-01 10:54:00,79.5,57.5,30.10,North,9,5.0,5.0,47,0.00,,CLR,0.00,772.00,VWS V14.00,2013-07-01 15:54:00,
2013-07-01 10:55:00,79.4,56.8,30.10,NNW,340,6.0,8.0,46,0.00,,CLR,0.00,772.00,VWS V14.00,2013-07-01 15:55:00,
2013-07-01 10:56:00,79.4,56.8,30.10,ENE,61,6.0,8.0,46,0.00,,CLR,0.00,761.00,VWS V14.00,2013-07-01 15:56:00,
2013-07-01 10:58:00,79.3,56.8,30.10,NNE,13,4.0,8.0,46,0.00,,CLR,0.00,766.00,VWS V14.00,2013-07-01 15:58:00,
2013-07-01 10:59:00,79.2,56.7,30.10,NNW,346,9.0,9.0,46,0.00,,CLR,0.00,766.00,VWS V14.00,2013-07-01 15:59:00,
2013-07-01 11:00:00,79.3,56.8,30.10,North,360,5.0,11.0,46,0.00,,CLR,0.00,770.00,VWS V14.00,2013-07-01 16:00:00,
2013-07-01 11:01:00,79.4,56.8,30.10,North,360,3.0,11.0,46,0.00,,CLR,0.00,772.00,VWS V14.00,2013-07-01 16:01:00,
2013-07-01 11:03:00,79.5,56.9,30.10,North,355,1.0,11.0,46,0.00,,CLR,0.00,775.00,VWS V14.00,2013-07-01 16:03:00,
2013-07-01 11:04:00,79.5,58.1,30.10,NNW,344,2.0,4.0,48,0.00,,CLR,0.00,766.00,VWS V14.00,2013-07-01 16:04:00,
2013-07-01 11:05:00,79.6,58.2,30.10,NNW,336,4.0,7.0,48,0.00,,CLR,0.00,763.00,VWS V14.00,2013-07-01 16:05:00,
2013-07-01 11:06:00,79.6,58.2,30.10,North,351,0.0,7.0,48,0.00,,CLR,0.00,768.00,VWS V14.00,2013-07-01 16:06:00,
2013-07-01 11:08:00,79.5,58.1,30.10,NNW,344,3.0,7.0,48,0.00,,CLR,0.00,759.00,VWS V14.00,2013-07-01 16:08:00,
2013-07-01 11:09:00,79.5,57.5,30.10,NNW,346,5.0,8.0,47,0.00,,CLR,0.00,737.00,VWS V14.00,2013-07-01 16:09:00,
2013-07-01 11:10:00,79.5,56.9,30.10,NNW,344,4.0,8.0,46,0.00,,CLR,0.00,737.00,VWS V14.00,2013-07-01 16:10:00,
2013-07-01 11:11:00,79.6,57.0,30.10,NNW,332,8.0,10.0,46,0.00,,CLR,0.00,742.00,VWS V14.00,2013-07-01 16:11:00,
2013-07-01 11:13:00,79.7,57.1,30.10,NE,53,3.0,10.0,46,0.00,,CLR,0.00,724.00,VWS V14.00,2013-07-01 16:13:00,
2013-07-01 11:15:00,79.7,56.5,30.10,NNW,331,4.0,6.0,45,0.00,,CLR,0.00,731.00,VWS V14.00,2013-07-01 16:15:00,
2013-07-01 11:16:00,79.6,55.2,30.10,NW,323,3.0,7.0,43,0.00,,CLR,0.00,735.00,VWS V14.00,2013-07-01 16:16:00,
2013-07-01 11:17:00,79.5,55.7,30.10,NNE,15,5.0,8.0,44,0.00,,CLR,0.00,749.00,VWS V14.00,2013-07-01 16:17:00,
2013-07-01 11:18:00,79.3,55.5,30.10,North,9,0.0,8.0,44,0.00,,CLR,0.00,754.00,VWS V14.00,2013-07-01 16:18:00,
2013-07-01 11:20:00,79.3,56.8,30.09,NNW,327,8.0,8.0,46,0.00,,CLR,0.00,772.00,VWS V14.00,2013-07-01 16:20:00,
2013-07-01 11:21:00,79.4,56.2,30.10,NW,304,6.0,11.0,45,0.00,,CLR,0.00,800.00,VWS V14.00,2013-07-01 16:21:00,
2013-07-01 11:22:00,79.5,56.3,30.10,NNE,17,4.0,11.0,45,0.00,,CLR,0.00,800.00,VWS V14.00,2013-07-01 16:22:00,
2013-07-01 11:23:00,79.7,57.1,30.10,North,350,4.0,11.0,46,0.00,,CLR,0.00,802.00,VWS V14.00,2013-07-01 16:23:00,
2013-07-01 11:25:00,80.0,54.9,30.10,NNW,341,6.0,7.0,42,0.00,,CLR,0.00,800.00,VWS V14.00,2013-07-01 16:25:00,
2013-07-01 11:26:00,80.0,56.2,30.10,North,351,12.0,14.0,44,0.00,,CLR,0.00,789.00,VWS V14.00,2013-07-01 16:26:00,
2013-07-01 11:27:00,80.1,55.0,30.10,NNW,348,7.0,14.0,42,0.00,,CLR,0.00,789.00,VWS V14.00,2013-07-01 16:27:00,
2013-07-01 11:28:00,80.2,54.4,30.10,NNW,329,0.0,14.0,41,0.00,,CLR,0.00,814.00,VWS V14.00,2013-07-01 16:28:00,
2013-07-01 11:30:00,80.2,55.7,30.10,NNW,329,3.0,5.0,43,0.00,,CLR,0.00,821.00,VWS V14.00,2013-07-01 16:30:00,
2013-07-01 11:31:00,80.2,55.7,30.10,ENE,65,2.0,5.0,43,0.00,,CLR,0.00,823.00,VWS V14.00,2013-07-01 16:31:00,
2013-07-01 11:32:00,80.3,55.1,30.10,ENE,57,4.0,5.0,42,0.00,,CLR,0.00,823.00,VWS V14.00,2013-07-01 16:32:00,
2013-07-01 11:33:00,80.2,54.4,30.10,North,5,3.0,9.0,41,0.00,,CLR,0.00,812.00,VWS V14.00,2013-07-01 16:33:00,
2013-07-01 11:35:00,80.2,54.4,30.10,NNW,346,3.0,7.0,41,0.00,,CLR,0.00,816.00,VWS V14.00,2013-07-01 16:35:00,
2013-07-01 11:36:00,80.2,54.4,30.10,North,360,4.0,7.0,41,0.00,,CLR,0.00,826.00,VWS V14.00,2013-07-01 16:36:00,
2013-07-01 11:38:00,80.2,57.6,30.10,North,355,2.0,7.0,46,0.00,,CLR,0.00,838.00,VWS V14.00,2013-07-01 16:38:00,
2013-07-01 11:40:00,80.3,56.4,30.09,North,360,1.0,4.0,44,0.00,,CLR,0.00,844.00,VWS V14.00,2013-07-01 16:40:00,
2013-07-01 11:41:00,80.3,56.4,30.09,North,9,3.0,4.0,44,0.00,,CLR,0.00,844.00,VWS V14.00,2013-07-01 16:41:00,
2013-07-01 11:42:00,80.4,57.1,30.09,NNE,26,4.0,6.0,45,0.00,,CLR,0.00,846.00,VWS V14.00,2013-07-01 16:42:00,
2013-07-01 11:43:00,80.5,56.6,30.09,NE,34,1.0,6.0,44,0.00,,CLR,0.00,835.00,VWS V14.00,2013-07-01 16:43:00,
2013-07-01 11:44:00,80.5,56.6,30.09,NNW,342,8.0,8.0,44,0.00,,CLR,0.00,831.00,VWS V14.00,2013-07-01 16:44:00,
2013-07-01 11:45:00,80.5,56.6,30.09,NW,313,7.0,7.0,44,0.00,,CLR,0.00,821.00,VWS V14.00,2013-07-01 16:45:00,
2013-07-01 11:46:00,80.5,55.3,30.10,ESE,123,1.0,8.0,42,0.00,,CLR,0.00,831.00,VWS V14.00,2013-07-01 16:46:00,
2013-07-01 11:47:00,80.5,54.0,30.10,NE,36,2.0,10.0,40,0.00,,CLR,0.00,272.00,VWS V14.00,2013-07-01 16:47:00,
2013-07-01 11:48:00,80.2,53.7,30.10,ENE,77,3.0,10.0,40,0.00,,CLR,0.00,272.00,VWS V14.00,2013-07-01 16:48:00,
2013-07-01 11:49:00,80.0,52.1,30.10,NE,53,0.0,6.0,38,0.00,,CLR,0.00,863.00,VWS V14.00,2013-07-01 16:49:00,
2013-07-01 11:50:00,80.1,53.6,30.10,NNW,337,6.0,10.0,40,0.00,,CLR,0.00,846.00,VWS V14.00,2013-07-01 16:50:00,
2013-07-01 11:51:00,79.8,52.7,30.10,NE,52,2.0,6.0,39,0.00,,CLR,0.00,204.00,VWS V14.00,2013-07-01 16:51:00,
2013-07-01 11:52:00,79.8,53.4,30.10,East,86,3.0,6.0,40,0.00,,CLR,0.00,204.00,VWS V14.00,2013-07-01 16:52:00,
2013-07-01 11:54:00,79.6,53.2,30.10,NW,316,4.0,10.0,40,0.00,,CLR,0.00,861.00,VWS V14.00,2013-07-01 16:54:00,
2013-07-01 11:55:00,79.7,53.3,30.09,NW,321,5.0,12.0,40,0.00,,CLR,0.00,867.00,VWS V14.00,2013-07-01 16:55:00,
2013-07-01 11:56:00,79.8,52.7,30.09,North,350,2.0,12.0,39,0.00,,CLR,0.00,211.00,VWS V14.00,2013-07-01 16:56:00,
2013-07-01 11:57:00,79.8,52.7,30.09,NNW,346,4.0,12.0,39,0.00,,CLR,0.00,211.00,VWS V14.00,2013-07-01 16:57:00,
2013-07-01 11:59:00,79.9,53.5,30.09,North,350,5.0,6.0,40,0.00,,CLR,0.00,870.00,VWS V14.00,2013-07-01 16:59:00,
2013-07-01 12:00:00,79.8,52.0,30.09,NNW,336,3.0,7.0,38,0.00,,CLR,0.00,877.00,VWS V14.00,2013-07-01 17:00:00,
2013-07-01 12:02:00,79.9,52.0,30.09,NNW,343,4.0,12.0,38,0.00,,CLR,0.00,865.00,VWS V14.00,2013-07-01 17:02:00,
2013-07-01 12:03:00,80.0,53.5,30.09,North,351,11.0,12.0,40,0.00,,CLR,0.00,835.00,VWS V14.00,2013-07-01 17:03:00,
2013-07-01 12:05:00,80.1,52.9,30.09,East,88,4.0,11.0,39,0.00,,CLR,0.00,847.00,VWS V14.00,2013-07-01 17:05:00,
2013-07-01 12:06:00,80.2,53.0,30.09,ENE,69,5.0,11.0,39,0.00,,CLR,0.00,856.00,VWS V14.00,2013-07-01 17:06:00,
2013-07-01 12:07:00,80.3,52.4,30.09,NW,325,7.0,11.0,38,0.00,,CLR,0.00,863.00,VWS V14.00,2013-07-01 17:07:00,
2013-07-01 12:08:00,80.6,54.1,30.09,East,99,6.0,11.0,40,0.00,,CLR,0.00,874.00,VWS V14.00,2013-07-01 17:08:00,
2013-07-01 12:10:00,80.6,53.4,30.09,ENE,67,4.0,7.0,39,0.00,,CLR,0.00,872.00,VWS V14.00,2013-07-01 17:10:00,
2013-07-01 12:11:00,80.6,52.7,30.09,North,360,1.0,7.0,38,0.00,,CLR,0.00,874.00,VWS V14.00,2013-07-01 17:11:00,
2013-07-01 12:12:00,80.6,54.1,30.09,East,88,4.0,7.0,40,0.00,,CLR,0.00,874.00,VWS V14.00,2013-07-01 17:12:00,
2013-07-01 12:14:00,80.5,52.6,30.09,ESE,109,1.0,7.0,38,0.00,,CLR,0.00,865.00,VWS V14.00,2013-07-01 17:14:00,
2013-07-01 12:15:00,80.4,51.8,30.09,ENE,57,1.0,7.0,37,0.00,,CLR,0.00,844.00,VWS V14.00,2013-07-01 17:15:00,
2013-07-01 12:16:00,80.3,53.8,30.09,ENE,65,0.0,7.0,40,0.00,,CLR,0.00,847.00,VWS V14.00,2013-07-01 17:16:00,
2013-07-01 12:17:00,80.4,54.6,30.09,NNE,30,2.0,7.0,41,0.00,,CLR,0.00,842.00,VWS V14.00,2013-07-01 17:17:00,
2013-07-01 12:18:00,80.4,53.2,30.09,East,86,3.0,7.0,39,0.00,,CLR,0.00,842.00,VWS V14.00,2013-07-01 17:18:00,
2013-07-01 12:19:00,80.3,53.1,30.09,North,350,5.0,5.0,39,0.00,,CLR,0.00,828.00,VWS V14.00,2013-07-01 17:19:00,
2013-07-01 12:20:00,80.4,53.9,30.09,East,80,3.0,9.0,40,0.00,,CLR,0.00,844.00,VWS V14.00,2013-07-01 17:20:00,
2013-07-01 12:21:00,80.5,53.3,30.09,ESE,102,5.0,9.0,39,0.00,,CLR,0.00,861.00,VWS V14.00,2013-07-01 17:21:00,
2013-07-01 12:22:00,80.5,55.3,30.09,ENE,69,4.0,9.0,42,0.00,,CLR,0.00,877.00,VWS V14.00,2013-07-01 17:22:00,
2013-07-01 12:23:00,80.5,52.6,30.09,East,91,4.0,9.0,38,0.00,,CLR,0.00,888.00,VWS V14.00,2013-07-01 17:23:00,
2013-07-01 12:24:00,80.6,54.8,30.09,ESE,121,5.0,5.0,41,0.00,,CLR,0.00,884.00,VWS V14.00,2013-07-01 17:24:00,
2013-07-01 12:25:00,80.5,52.6,30.09,East,91,5.0,9.0,38,0.00,,CLR,0.00,888.00,VWS V14.00,2013-07-01 17:25:00,
2013-07-01 12:26:00,80.6,52.0,30.09,North,360,2.0,7.0,37,0.00,,CLR,0.00,884.00,VWS V14.00,2013-07-01 17:26:00,
2013-07-01 12:27:00,80.6,52.7,30.09,NNE,31,2.0,7.0,38,0.00,,CLR,0.00,870.00,VWS V14.00,2013-07-01 17:27:00,
2013-07-01 12:28:00,80.6,52.7,30.09,East,80,1.0,7.0,38,0.00,,CLR,0.00,881.00,VWS V14.00,2013-07-01 17:28:00,
2013-07-01 12:29:00,80.7,53.5,30.09,NNW,334,7.0,8.0,39,0.00,,CLR,0.00,881.00,VWS V14.00,2013-07-01 17:29:00,
2013-07-01 12:30:00,80.6,52.7,30.09,NNW,338,3.0,7.0,38,0.00,,CLR,0.00,881.00,VWS V14.00,2013-07-01 17:30:00,
2013-07-01 12:31:00,80.8,52.8,30.09,NNW,336,3.0,9.0,38,0.00,,CLR,0.00,867.00,VWS V14.00,2013-07-01 17:31:00,
2013-07-01 12:32:00,80.9,52.2,30.09,NNW,341,10.0,17.0,37,0.00,,CLR,0.00,874.00,VWS V14.00,2013-07-01 17:32:00,
2013-07-01 12:33:00,81.0,53.0,30.09,North,11,3.0,17.0,38,0.00,,CLR,0.00,882.00,VWS V14.00,2013-07-01 17:33:00,
2013-07-01 12:34:00,81.1,53.1,30.09,NNE,30,0.0,5.0,38,0.00,,CLR,0.00,889.00,VWS V14.00,2013-07-01 17:34:00,
2013-07-01 12:35:00,81.1,52.4,30.09,ENE,58,5.0,17.0,37,0.00,,CLR,0.00,889.00,VWS V14.00,2013-07-01 17:35:00,
2013-07-01 12:36:00,81.3,54.0,30.09,NNE,15,3.0,7.0,39,0.00,,CLR,0.00,889.00,VWS V14.00,2013-07-01 17:36:00,
2013-07-01 12:38:00,81.4,53.4,30.09,NNW,331,1.0,10.0,38,0.00,,CLR,0.00,889.00,VWS V14.00,2013-07-01 17:38:00,
2013-07-01 12:39:00,81.5,54.2,30.09,North,11,7.0,10.0,39,0.00,,CLR,0.00,904.00,VWS V14.00,2013-07-01 17:39:00,
2013-07-01 12:40:00,81.6,53.6,30.09,NNW,330,4.0,10.0,38,0.00,,CLR,0.00,904.00,VWS V14.00,2013-07-01 17:40:00,
2013-07-01 12:41:00,81.6,52.8,30.09,NNE,22,5.0,10.0,37,0.00,,CLR,0.00,896.00,VWS V14.00,2013-07-01 17:41:00,
2013-07-01 12:43:00,81.6,52.8,30.09,ENE,60,8.0,10.0,37,0.00,,CLR,0.00,893.00,VWS V14.00,2013-07-01 17:43:00,
2013-07-01 12:44:00,81.5,52.7,30.09,NNE,24,3.0,8.0,37,0.00,,CLR,0.00,902.00,VWS V14.00,2013-07-01 17:44:00,
2013-07-01 12:45:00,81.4,51.9,30.09,North,9,0.0,8.0,36,0.00,,CLR,0.00,893.00,VWS V14.00,2013-07-01 17:45:00,
2013-07-01 12:47:00,81.3,52.6,30.09,NE,48,1.0,8.0,37,0.00,,CLR,0.00,888.00,VWS V14.00,2013-07-01 17:47:00,
2013-07-01 12:48:00,81.3,53.3,30.09,North,5,5.0,9.0,38,0.00,,CLR,0.00,886.00,VWS V14.00,2013-07-01 17:48:00,
2013-07-01 12:50:00,81.4,54.1,30.08,NNE,13,5.0,8.0,39,0.00,,CLR,0.00,882.00,VWS V14.00,2013-07-01 17:50:00,
2013-07-01 12:53:00,81.3,51.8,30.08,North,5,5.0,11.0,36,0.00,,CLR,0.00,891.00,VWS V14.00,2013-07-01 17:53:00,
2013-07-01 12:55:00,81.4,51.2,30.09,NNE,15,10.0,11.0,35,0.00,,CLR,0.00,854.00,VWS V14.00,2013-07-01 17:55:00,
2013-07-01 12:56:00,81.4,51.2,30.09,NNW,343,3.0,11.0,35,0.00,,CLR,0.00,875.00,VWS V14.00,2013-07-01 17:56:00,
2013-07-01 12:58:00,81.5,52.0,30.09,East,90,5.0,11.0,36,0.00,,CLR,0.00,875.00,VWS V14.00,2013-07-01 17:58:00,
2013-07-01 12:59:00,81.5,52.0,30.08,NNE,30,6.0,6.0,36,0.00,,CLR,0.00,881.00,VWS V14.00,2013-07-01 17:59:00,
2013-07-01 13:00:00,81.5,53.5,30.08,East,91,1.0,8.0,38,0.00,,CLR,0.00,888.00,VWS V14.00,2013-07-01 18:00:00,
2013-07-01 13:02:00,81.3,52.6,30.08,North,355,5.0,8.0,37,0.00,,CLR,0.00,882.00,VWS V14.00,2013-07-01 18:02:00,
2013-07-01 13:04:00,81.4,53.4,30.08,North,9,5.0,13.0,38,0.00,,CLR,0.00,886.00,VWS V14.00,2013-07-01 18:04:00,
2013-07-01 13:05:00,81.5,54.9,30.08,NE,53,3.0,13.0,40,0.00,,CLR,0.00,872.00,VWS V14.00,2013-07-01 18:05:00,
2013-07-01 13:07:00,81.5,51.2,30.09,ENE,61,5.0,13.0,35,0.00,,CLR,0.00,886.00,VWS V14.00,2013-07-01 18:07:00,
2013-07-01 13:09:00,81.4,52.7,30.08,NE,54,3.0,6.0,37,0.00,,CLR,0.00,902.00,VWS V14.00,2013-07-01 18:09:00,
2013-07-01 13:10:00,81.2,51.7,30.08,ESE,119,6.0,11.0,36,0.00,,CLR,0.00,896.00,VWS V14.00,2013-07-01 18:10:00,
2013-07-01 13:13:00,81.0,54.4,30.08,NE,38,3.0,11.0,40,0.00,,CLR,0.00,891.00,VWS V14.00,2013-07-01 18:13:00,
2013-07-01 13:14:00,81.1,54.5,30.08,North,355,6.0,6.0,40,0.00,,CLR,0.00,884.00,VWS V14.00,2013-07-01 18:14:00,
2013-07-01 13:15:00,81.2,54.6,30.08,NNW,335,3.0,8.0,40,0.00,,CLR,0.00,884.00,VWS V14.00,2013-07-01 18:15:00,
2013-07-01 13:18:00,81.7,54.4,30.08,NNW,342,4.0,10.0,39,0.00,,CLR,0.00,879.00,VWS V14.00,2013-07-01 18:18:00,
2013-07-01 13:19:00,81.8,55.1,30.08,ENE,62,1.0,4.0,40,0.00,,CLR,0.00,881.00,VWS V14.00,2013-07-01 18:19:00,
2013-07-01 13:20:00,81.8,53.0,30.08,East,96,7.0,10.0,37,0.00,,CLR,0.00,884.00,VWS V14.00,2013-07-01 18:20:00,
2013-07-01 13:23:00,81.3,53.3,30.08,NNE,20,3.0,10.0,38,0.00,,CLR,0.00,900.00,VWS V14.00,2013-07-01 18:23:00,
2013-07-01 13:24:00,81.3,54.0,30.08,ENE,57,3.0,12.0,39,0.00,,CLR,0.00,888.00,VWS V14.00,2013-07-01 18:24:00,
2013-07-01 13:25:00,81.3,54.0,30.08,NNW,348,4.0,12.0,39,0.00,,CLR,0.00,888.00,VWS V14.00,2013-07-01 18:25:00,
2013-07-01 13:28:00,81.1,52.4,30.08,ENE,73,4.0,12.0,37,0.00,,CLR,0.00,874.00,VWS V14.00,2013-07-01 18:28:00,
2013-07-01 13:29:00,81.0,53.0,30.08,ENE,66,4.0,8.0,38,0.00,,CLR,0.00,872.00,VWS V14.00,2013-07-01 18:29:00,
2013-07-01 13:30:00,81.0,53.0,30.08,ENE,72,2.0,8.0,38,0.00,,CLR,0.00,877.00,VWS V14.00,2013-07-01 18:30:00,
2013-07-01 13:33:00,80.9,53.7,30.08,NW,318,5.0,5.0,39,0.00,,CLR,0.00,877.00,VWS V14.00,2013-07-01 18:33:00,
2013-07-01 13:34:00,81.0,53.7,30.08,NNW,343,6.0,7.0,39,0.00,,CLR,0.00,853.00,VWS V14.00,2013-07-01 18:34:00,
2013-07-01 13:35:00,81.1,52.4,30.08,NW,325,0.0,7.0,37,0.00,,CLR,0.00,884.00,VWS V14.00,2013-07-01 18:35:00,
2013-07-01 13:39:00,81.3,52.6,30.08,ENE,74,4.0,8.0,37,0.00,,CLR,0.00,904.00,VWS V14.00,2013-07-01 18:39:00,
2013-07-01 13:40:00,81.3,52.6,30.08,NW,324,3.0,8.0,37,0.00,,CLR,0.00,896.00,VWS V14.00,2013-07-01 18:40:00,
2013-07-01 13:45:00,81.5,54.2,30.08,WNW,295,7.0,9.0,39,0.00,,CLR,0.00,891.00,VWS V14.00,2013-07-01 18:45:00,
2013-07-01 13:46:00,81.6,55.0,30.08,NNE,26,0.0,9.0,40,0.00,,CLR,0.00,898.00,VWS V14.00,2013-07-01 18:46:00,
2013-07-01 13:50:00,81.8,53.7,30.08,ESE,102,5.0,8.0,38,0.00,,CLR,0.00,889.00,VWS V14.00,2013-07-01 18:50:00,
2013-07-01 13:51:00,81.7,53.7,30.08,NNW,332,3.0,8.0,38,0.00,,CLR,0.00,884.00,VWS V14.00,2013-07-01 18:51:00,
2013-07-01 13:55:00,81.6,55.6,30.08,North,349,8.0,8.0,41,0.00,,CLR,0.00,893.00,VWS V14.00,2013-07-01 18:55:00,
2013-07-01 13:56:00,81.7,56.4,30.08,NE,53,1.0,9.0,42,0.00,,CLR,0.00,870.00,VWS V14.00,2013-07-01 18:56:00,
2013-07-01 13:57:00,81.8,53.7,30.08,NNE,13,4.0,9.0,38,0.00,,CLR,0.00,870.00,VWS V14.00,2013-07-01 18:57:00,
2013-07-01 14:00:00,81.8,54.5,30.08,North,360,2.0,6.0,39,0.00,,CLR,0.00,905.00,VWS V14.00,2013-07-01 19:00:00,
2013-07-01 14:01:00,81.8,54.5,30.08,NE,46,4.0,6.0,39,0.00,,CLR,0.00,856.00,VWS V14.00,2013-07-01 19:01:00,
2013-07-01 14:03:00,81.6,54.3,30.08,ENE,61,1.0,7.0,39,0.00,,CLR,0.00,888.00,VWS V14.00,2013-07-01 19:03:00,
2013-07-01 14:05:00,81.6,53.6,30.08,NE,41,5.0,10.0,38,0.00,,CLR,0.00,879.00,VWS V14.00,2013-07-01 19:05:00,
2013-07-01 14:06:00,81.5,55.5,30.07,NNW,331,5.0,6.0,41,0.00,,CLR,0.00,896.00,VWS V14.00,2013-07-01 19:06:00,
2013-07-01 14:08:00,81.6,55.0,30.08,North,355,4.0,11.0,40,0.00,,CLR,0.00,867.00,VWS V14.00,2013-07-01 19:08:00,
2013-07-01 14:10:00,81.7,57.0,30.08,NNW,347,6.0,11.0,43,0.00,,CLR,0.00,851.00,VWS V14.00,2013-07-01 19:10:00,
2013-07-01 14:11:00,82.1,56.1,30.08,East,100,4.0,8.0,41,0.00,,CLR,0.00,849.00,VWS V14.00,2013-07-01 19:11:00,
2013-07-01 14:12:00,82.2,54.8,30.08,NNW,332,5.0,8.0,39,0.00,,CLR,0.00,849.00,VWS V14.00,2013-07-01 19:12:00,
2013-07-01 14:13:00,82.3,56.3,30.07,NNW,330,4.0,8.0,41,0.00,,CLR,0.00,842.00,VWS V14.00,2013-07-01 19:13:00,
2013-07-01 14:15:00,82.3,56.3,30.07,North,355,5.0,8.0,41,0.00,,CLR,0.00,849.00,VWS V14.00,2013-07-01 19:15:00,
2013-07-01 14:16:00,82.5,54.4,30.07,North,355,10.0,10.0,38,0.00,,CLR,0.00,881.00,VWS V14.00,2013-07-01 19:16:00,
2013-07-01 14:17:00,82.4,54.3,30.07,North,9,2.0,10.0,38,0.00,,CLR,0.00,881.00,VWS V14.00,2013-07-01 19:17:00,
2013-07-01 14:18:00,82.4,54.3,30.07,ESE,104,5.0,10.0,38,0.00,,CLR,0.00,872.00,VWS V14.00,2013-07-01 19:18:00,
2013-07-01 14:20:00,82.3,54.2,30.07,East,99,6.0,10.0,38,0.00,,CLR,0.00,872.00,VWS V14.00,2013-07-01 19:20:00,
2013-07-01 14:21:00,82.1,56.1,30.07,North,350,3.0,11.0,41,0.00,,CLR,0.00,863.00,VWS V14.00,2013-07-01 19:21:00,
2013-07-01 14:22:00,82.1,56.1,30.07,NNE,22,7.0,12.0,41,0.00,,CLR,0.00,863.00,VWS V14.00,2013-07-01 19:22:00,
2013-07-01 14:23:00,82.2,54.8,30.07,NNW,327,4.0,12.0,39,0.00,,CLR,0.00,865.00,VWS V14.00,2013-07-01 19:23:00,
2013-07-01 14:25:00,82.2,54.8,30.07,NNW,329,3.0,12.0,39,0.00,,CLR,0.00,865.00,VWS V14.00,2013-07-01 19:25:00,
2013-07-01 14:27:00,82.6,54.5,30.07,NNW,331,12.0,12.0,38,0.00,,CLR,0.00,853.00,VWS V14.00,2013-07-01 19:27:00,
2013-07-01 14:28:00,82.7,53.8,30.07,NE,34,5.0,12.0,37,0.00,,CLR,0.00,853.00,VWS V14.00,2013-07-01 19:28:00,
2013-07-01 14:30:00,82.7,54.5,30.07,North,355,7.0,12.0,38,0.00,,CLR,0.00,853.00,VWS V14.00,2013-07-01 19:30:00,
2013-07-01 14:32:00,82.6,53.0,30.07,NW,326,8.0,12.0,36,0.00,,CLR,0.00,814.00,VWS V14.00,2013-07-01 19:32:00,
2013-07-01 14:33:00,82.6,53.0,30.07,NW,326,5.0,12.0,36,0.00,,CLR,0.00,803.00,VWS V14.00,2013-07-01 19:33:00,
2013-07-01 14:34:00,82.6,55.2,30.07,NNE,28,3.0,5.0,39,0.00,,CLR,0.00,819.00,VWS V14.00,2013-07-01 19:34:00,
2013-07-01 14:35:00,82.6,53.7,30.07,NE,47,3.0,12.0,37,0.00,,CLR,0.00,819.00,VWS V14.00,2013-07-01 19:35:00,
2013-07-01 14:37:00,82.5,52.9,30.07,NW,318,0.0,8.0,36,0.00,,CLR,0.00,838.00,VWS V14.00,2013-07-01 19:37:00,
2013-07-01 14:38:00,82.4,52.8,30.07,NNW,348,1.0,8.0,36,0.00,,CLR,0.00,831.00,VWS V14.00,2013-07-01 19:38:00,
2013-07-01 14:39:00,82.4,55.7,30.07,North,351,6.0,7.0,40,0.00,,CLR,0.00,828.00,VWS V14.00,2013-07-01 19:39:00,
2013-07-01 14:40:00,82.4,55.7,30.07,NNW,334,3.0,8.0,40,0.00,,CLR,0.00,828.00,VWS V14.00,2013-07-01 19:40:00,
2013-07-01 14:42:00,82.4,54.3,30.07,ENE,67,2.0,11.0,38,0.00,,CLR,0.00,802.00,VWS V14.00,2013-07-01 19:42:00,
2013-07-01 14:43:00,82.4,52.8,30.07,NNW,328,9.0,11.0,36,0.00,,CLR,0.00,798.00,VWS V14.00,2013-07-01 19:43:00,
2013-07-01 14:44:00,82.4,55.7,30.07,NNE,20,2.0,9.0,40,0.00,,CLR,0.00,798.00,VWS V14.00,2013-07-01 19:44:00,
2013-07-01 14:45:00,82.4,54.3,30.07,North,355,3.0,11.0,38,0.00,,CLR,0.00,798.00,VWS V14.00,2013-07-01 19:45:00,
2013-07-01 14:47:00,82.2,54.8,30.07,NNE,22,2.0,9.0,39,0.00,,CLR,0.00,810.00,VWS V14.00,2013-07-01 19:47:00,
2013-07-01 14:48:00,82.2,54.1,30.07,NNE,23,2.0,9.0,38,0.00,,CLR,0.00,802.00,VWS V14.00,2013-07-01 19:48:00,
2013-07-01 14:49:00,82.2,54.1,30.07,North,5,2.0,2.0,38,0.00,,CLR,0.00,803.00,VWS V14.00,2013-07-01 19:49:00,
2013-07-01 14:50:00,82.2,54.1,30.07,North,5,2.0,9.0,38,0.00,,CLR,0.00,803.00,VWS V14.00,2013-07-01 19:50:00,
2013-07-01 14:52:00,81.7,51.4,30.07,ENE,67,6.0,12.0,35,0.00,,CLR,0.00,789.00,VWS V14.00,2013-07-01 19:52:00,
2013-07-01 14:53:00,81.5,52.7,30.07,NE,38,1.0,12.0,37,0.00,,CLR,0.00,773.00,VWS V14.00,2013-07-01 19:53:00,
2013-07-01 14:54:00,81.5,54.2,30.07,NE,55,6.0,6.0,39,0.00,,CLR,0.00,754.00,VWS V14.00,2013-07-01 19:54:00,
2013-07-01 14:55:00,81.5,52.7,30.07,NE,38,0.0,12.0,37,0.00,,CLR,0.00,773.00,VWS V14.00,2013-07-01 19:55:00,
2013-07-01 14:57:00,81.6,52.8,30.07,North,350,3.0,13.0,37,0.00,,CLR,0.00,768.00,VWS V14.00,2013-07-01 19:57:00,
2013-07-01 14:58:00,81.6,52.8,30.07,NNW,340,8.0,13.0,37,0.00,,CLR,0.00,773.00,VWS V14.00,2013-07-01 19:58:00,
2013-07-01 14:59:00,81.7,52.9,30.07,NNW,340,7.0,9.0,37,0.00,,CLR,0.00,759.00,VWS V14.00,2013-07-01 19:59:00,
2013-07-01 15:00:00,81.7,52.9,30.07,NNW,340,7.0,9.0,37,0.00,,CLR,0.00,759.00,VWS V14.00,2013-07-01 20:00:00,
2013-07-01 15:01:00,81.8,55.1,30.07,NNE,13,1.0,10.0,40,0.00,,CLR,0.00,751.00,VWS V14.00,2013-07-01 20:01:00,
2013-07-01 15:03:00,81.8,53.0,30.07,NNW,331,1.0,10.0,37,0.00,,CLR,0.00,756.00,VWS V14.00,2013-07-01 20:03:00,
2013-07-01 15:05:00,81.8,53.7,30.07,NNE,21,2.0,5.0,38,0.00,,CLR,0.00,742.00,VWS V14.00,2013-07-01 20:05:00,
2013-07-01 15:06:00,81.9,53.8,30.07,ENE,63,2.0,11.0,38,0.00,,CLR,0.00,735.00,VWS V14.00,2013-07-01 20:06:00,
2013-07-01 15:08:00,82.0,55.3,30.07,NNW,329,3.0,11.0,40,0.00,,CLR,0.00,763.00,VWS V14.00,2013-07-01 20:08:00,
2013-07-01 15:10:00,82.1,56.1,30.06,East,80,2.0,7.0,41,0.00,,CLR,0.00,751.00,VWS V14.00,2013-07-01 20:10:00,
2013-07-01 15:11:00,82.2,54.8,30.07,ENE,67,5.0,11.0,39,0.00,,CLR,0.00,740.00,VWS V14.00,2013-07-01 20:11:00,
2013-07-01 15:13:00,82.0,53.9,30.07,NNE,22,6.0,11.0,38,0.00,,CLR,0.00,724.00,VWS V14.00,2013-07-01 20:13:00,
2013-07-01 15:14:00,82.0,53.9,30.07,North,9,6.0,7.0,38,0.00,,CLR,0.00,724.00,VWS V14.00,2013-07-01 20:14:00,
2013-07-01 15:15:00,81.7,52.9,30.07,NW,324,4.0,9.0,37,0.00,,CLR,0.00,717.00,VWS V14.00,2013-07-01 20:15:00,
2013-07-01 15:16:00,81.6,54.3,30.07,North,360,14.0,14.0,39,0.00,,CLR,0.00,742.00,VWS V14.00,2013-07-01 20:16:00,
2013-07-01 15:18:00,81.6,55.0,30.07,NNW,337,7.0,14.0,40,0.00,,CLR,0.00,721.00,VWS V14.00,2013-07-01 20:18:00,
2013-07-01 15:19:00,81.6,54.3,30.07,North,355,1.0,9.0,39,0.00,,CLR,0.00,721.00,VWS V14.00,2013-07-01 20:19:00,
2013-07-01 15:20:00,81.6,53.6,30.07,NNW,347,6.0,9.0,38,0.00,,FEW075,0.00,698.00,VWS V14.00,2013-07-01 20:20:00,
2013-07-01 15:21:00,81.6,55.0,30.07,NE,48,1.0,9.0,40,0.00,,FEW075,0.00,696.00,VWS V14.00,2013-07-01 20:21:00,
2013-07-01 15:23:00,81.6,53.6,30.07,ENE,60,6.0,9.0,38,0.00,,FEW075,0.00,722.00,VWS V14.00,2013-07-01 20:23:00,
2013-07-01 15:24:00,81.6,54.3,30.06,NE,51,4.0,6.0,39,0.00,,FEW075,0.00,724.00,VWS V14.00,2013-07-01 20:24:00,
2013-07-01 15:25:00,81.6,55.0,30.07,East,90,6.0,11.0,40,0.00,,FEW075,0.00,721.00,VWS V14.00,2013-07-01 20:25:00,
2013-07-01 15:26:00,81.6,54.3,30.07,ESE,109,4.0,11.0,39,0.00,,FEW075,0.00,719.00,VWS V14.00,2013-07-01 20:26:00,
2013-07-01 15:27:00,81.7,54.4,30.07,East,88,1.0,11.0,39,0.00,,FEW075,0.00,719.00,VWS V14.00,2013-07-01 20:27:00,
2013-07-01 15:28:00,81.6,54.3,30.06,North,5,3.0,11.0,39,0.00,,FEW075,0.00,700.00,VWS V14.00,2013-07-01 20:28:00,
2013-07-01 15:29:00,81.7,55.7,30.07,ENE,61,13.0,13.0,41,0.00,,FEW075,0.00,663.00,VWS V14.00,2013-07-01 20:29:00,
2013-07-01 15:30:00,81.7,54.4,30.07,NE,55,3.0,13.0,39,0.00,,FEW075,0.00,663.00,VWS V14.00,2013-07-01 20:30:00,
2013-07-01 15:31:00,81.6,53.6,30.07,East,94,5.0,13.0,38,0.00,,FEW075,0.00,689.00,VWS V14.00,2013-07-01 20:31:00,
2013-07-01 15:32:00,81.6,53.6,30.07,NNE,32,3.0,13.0,38,0.00,,FEW075,0.00,689.00,VWS V14.00,2013-07-01 20:32:00,
2013-07-01 15:33:00,81.6,55.0,30.07,East,98,5.0,5.0,40,0.00,,FEW075,0.00,694.00,VWS V14.00,2013-07-01 20:33:00,
2013-07-01 15:35:00,81.6,55.0,30.07,NNE,20,3.0,17.0,40,0.00,,FEW075,0.00,705.00,VWS V14.00,2013-07-01 20:35:00,
2013-07-01 15:37:00,81.5,54.2,30.07,North,355,11.0,17.0,39,0.00,,FEW075,0.00,691.00,VWS V14.00,2013-07-01 20:37:00,
2013-07-01 15:39:00,81.7,55.7,30.07,North,355,7.0,11.0,41,0.00,,FEW075,0.00,687.00,VWS V14.00,2013-07-01 20:39:00,
2013-07-01 15:40:00,81.8,54.5,30.07,NNW,344,10.0,12.0,39,0.00,,FEW075,0.00,670.00,VWS V14.00,2013-07-01 20:40:00,
2013-07-01 15:42:00,81.8,54.5,30.07,North,355,4.0,12.0,39,0.00,,FEW075,0.00,691.00,VWS V14.00,2013-07-01 20:42:00,
2013-07-01 15:44:00,81.8,54.5,30.07,ENE,74,2.0,9.0,39,0.00,,FEW075,0.00,675.00,VWS V14.00,2013-07-01 20:44:00,
2013-07-01 15:45:00,81.8,55.1,30.07,ENE,59,1.0,9.0,40,0.00,,FEW075,0.00,694.00,VWS V14.00,2013-07-01 20:45:00,
2013-07-01 15:47:00,81.7,53.7,30.06,NNW,346,4.0,9.0,38,0.00,,FEW075,0.00,698.00,VWS V14.00,2013-07-01 20:47:00,
2013-07-01 15:48:00,81.7,54.4,30.06,NNW,330,2.0,9.0,39,0.00,,FEW075,0.00,703.00,VWS V14.00,2013-07-01 20:48:00,
2013-07-01 15:49:00,81.7,55.0,30.06,NNW,335,8.0,13.0,40,0.00,,FEW075,0.00,691.00,VWS V14.00,2013-07-01 20:49:00,
2013-07-01 15:50:00,81.8,55.1,30.06,North,351,15.0,15.0,40,0.00,,FEW075,0.00,700.00,VWS V14.00,2013-07-01 20:50:00,
2013-07-01 15:52:00,81.9,54.5,30.07,ENE,67,3.0,15.0,39,0.00,,FEW075,0.00,603.00,VWS V14.00,2013-07-01 20:52:00,
2013-07-01 15:53:00,81.9,53.8,30.07,North,360,6.0,15.0,38,0.00,,FEW075,0.00,663.00,VWS V14.00,2013-07-01 20:53:00,
2013-07-01 15:55:00,81.8,53.7,30.07,ENE,61,7.0,10.0,38,0.00,,FEW075,0.00,659.00,VWS V14.00,2013-07-01 20:55:00,
2013-07-01 15:56:00,81.8,53.7,30.07,NE,48,3.0,13.0,38,0.00,,FEW075,0.00,661.00,VWS V14.00,2013-07-01 20:56:00,
2013-07-01 15:57:00,81.8,53.7,30.07,NNE,15,4.0,13.0,38,0.00,,FEW075,0.00,640.00,VWS V14.00,2013-07-01 20:57:00,
2013-07-01 15:58:00,81.7,52.9,30.07,North,355,3.0,13.0,37,0.00,,FEW075,0.00,638.00,VWS V14.00,2013-07-01 20:58:00,
2013-07-01 16:00:00,81.6,53.6,30.07,North,11,3.0,9.0,38,0.00,,FEW075,0.00,636.00,VWS V14.00,2013-07-01 21:00:00,
2013-07-01 16:01:00,81.5,52.7,30.07,NE,46,5.0,9.0,37,0.00,,CLR,0.00,645.00,VWS V14.00,2013-07-01 21:01:00,
2013-07-01 16:02:00,81.5,53.5,30.07,NNW,331,6.0,10.0,38,0.00,,CLR,0.00,633.00,VWS V14.00,2013-07-01 21:02:00,
2013-07-01 16:03:00,81.4,52.7,30.07,North,5,9.0,10.0,37,0.00,,CLR,0.00,633.00,VWS V14.00,2013-07-01 21:03:00,
2013-07-01 16:05:00,81.4,52.7,30.06,North,10,2.0,10.0,37,0.00,,CLR,0.00,642.00,VWS V14.00,2013-07-01 21:05:00,
2013-07-01 16:06:00,81.4,54.1,30.07,East,80,2.0,10.0,39,0.00,,CLR,0.00,642.00,VWS V14.00,2013-07-01 21:06:00,
2013-07-01 16:07:00,81.4,53.4,30.06,NNW,327,5.0,11.0,38,0.00,,CLR,0.00,647.00,VWS V14.00,2013-07-01 21:07:00,
2013-07-01 16:09:00,81.4,54.1,30.06,ESE,106,6.0,7.0,39,0.00,,CLR,0.00,642.00,VWS V14.00,2013-07-01 21:09:00,
2013-07-01 16:10:00,81.4,54.1,30.07,NE,51,7.0,11.0,39,0.00,,CLR,0.00,642.00,VWS V14.00,2013-07-01 21:10:00,
2013-07-01 16:11:00,81.5,53.5,30.06,NNW,329,4.0,8.0,38,0.00,,CLR,0.00,633.00,VWS V14.00,2013-07-01 21:11:00,
2013-07-01 16:12:00,81.6,54.3,30.06,NNW,348,7.0,9.0,39,0.00,,CLR,0.00,624.00,VWS V14.00,2013-07-01 21:12:00,
2013-07-01 16:15:00,81.7,54.4,30.06,NNW,344,6.0,13.0,39,0.00,,CLR,0.00,621.00,VWS V14.00,2013-07-01 21:15:00,
2013-07-01 16:16:00,81.8,53.7,30.06,ESE,119,6.0,13.0,38,0.00,,CLR,0.00,624.00,VWS V14.00,2013-07-01 21:16:00,
2013-07-01 16:17:00,81.8,53.7,30.06,NNE,30,6.0,13.0,38,0.00,,CLR,0.00,617.00,VWS V14.00,2013-07-01 21:17:00,
2013-07-01 16:20:00,81.9,53.1,30.06,NNW,338,8.0,9.0,37,0.00,,SCT090,0.00,615.00,VWS V14.00,2013-07-01 21:20:00,
2013-07-01 16:21:00,81.9,53.1,30.06,NW,323,11.0,13.0,37,0.00,,SCT090,0.00,613.00,VWS V14.00,2013-07-01 21:21:00,
2013-07-01 16:22:00,81.9,53.1,30.06,North,9,8.0,13.0,37,0.00,,SCT090,0.00,612.00,VWS V14.00,2013-07-01 21:22:00,
2013-07-01 16:23:00,81.9,53.1,30.06,North,360,5.0,13.0,37,0.00,,SCT090,0.00,619.00,VWS V14.00,2013-07-01 21:23:00,
2013-07-01 16:25:00,82.0,53.2,30.06,NNE,19,7.0,13.0,37,0.00,,SCT090,0.00,601.00,VWS V14.00,2013-07-01 21:25:00,
2013-07-01 16:26:00,82.0,53.9,30.06,NNE,19,6.0,13.0,38,0.00,,SCT090,0.00,601.00,VWS V14.00,2013-07-01 21:26:00,
2013-07-01 16:27:00,82.0,54.6,30.06,North,355,7.0,13.0,39,0.00,,SCT090,0.00,599.00,VWS V14.00,2013-07-01 21:27:00,
2013-07-01 16:28:00,82.0,53.9,30.06,NNW,333,12.0,13.0,38,0.00,,SCT090,0.00,605.00,VWS V14.00,2013-07-01 21:28:00,
2013-07-01 16:30:00,82.1,53.3,30.06,North,350,2.0,13.0,37,0.00,,SCT090,0.00,580.00,VWS V14.00,2013-07-01 21:30:00,
2013-07-01 16:31:00,82.0,53.2,30.06,NNW,342,3.0,13.0,37,0.00,,SCT090,0.00,571.00,VWS V14.00,2013-07-01 21:31:00,
2013-07-01 16:32:00,82.1,54.7,30.06,NW,308,9.0,13.0,39,0.00,,SCT090,0.00,570.00,VWS V14.00,2013-07-01 21:32:00,
2013-07-01 16:33:00,82.1,54.7,30.06,NW,320,5.0,13.0,39,0.00,,SCT090,0.00,568.00,VWS V14.00,2013-07-01 21:33:00,
2013-07-01 16:35:00,82.1,52.5,30.06,NNE,22,2.0,13.0,36,0.00,,CLR,0.00,564.00,VWS V14.00,2013-07-01 21:35:00,
2013-07-01 16:36:00,82.1,53.3,30.06,NNW,327,5.0,11.0,37,0.00,,SCT090,0.00,571.00,VWS V14.00,2013-07-01 21:36:00,
2013-07-01 16:37:00,82.0,53.2,30.06,NNE,24,9.0,11.0,37,0.00,,SCT090,0.00,568.00,VWS V14.00,2013-07-01 21:37:00,
2013-07-01 16:38:00,82.0,53.2,30.06,NNW,337,6.0,11.0,37,0.00,,SCT090,0.00,561.00,VWS V14.00,2013-07-01 21:38:00,
2013-07-01 16:40:00,81.9,53.1,30.06,NNW,337,10.0,11.0,37,0.00,,CLR,0.00,561.00,VWS V14.00,2013-07-01 21:40:00,
2013-07-01 16:41:00,81.9,53.1,30.06,NNE,19,5.0,10.0,37,0.00,,SCT075,0.00,566.00,VWS V14.00,2013-07-01 21:41:00,
2013-07-01 16:42:00,81.9,53.1,30.06,NNW,348,6.0,10.0,37,0.00,,SCT075,0.00,566.00,VWS V14.00,2013-07-01 21:42:00,
2013-07-01 16:43:00,81.9,53.1,30.06,NNW,333,4.0,10.0,37,0.00,,SCT075,0.00,547.00,VWS V14.00,2013-07-01 21:43:00,
2013-07-01 16:45:00,81.9,53.1,30.06,NW,318,5.0,10.0,37,0.00,,CLR,0.00,547.00,VWS V14.00,2013-07-01 21:45:00,
2013-07-01 16:47:00,81.8,53.0,30.06,NNW,344,1.0,9.0,37,0.00,,SCT075,0.00,541.00,VWS V14.00,2013-07-01 21:47:00,
2013-07-01 16:48:00,81.7,53.7,30.06,NNW,342,4.0,9.0,38,0.00,,SCT075,0.00,515.00,VWS V14.00,2013-07-01 21:48:00,
2013-07-01 16:49:00,81.7,53.7,30.06,NNE,12,4.0,6.0,38,0.00,,SCT075,0.00,520.00,VWS V14.00,2013-07-01 21:49:00,
2013-07-01 16:50:00,81.7,53.7,30.06,NNW,341,2.0,9.0,38,0.00,,CLR,0.00,515.00,VWS V14.00,2013-07-01 21:50:00,
2013-07-01 16:52:00,81.7,52.9,30.06,East,90,7.0,10.0,37,0.00,,SCT075,0.00,534.00,VWS V14.00,2013-07-01 21:52:00,
2013-07-01 16:53:00,81.6,54.3,30.06,North,5,7.0,10.0,39,0.00,,SCT075,0.00,527.00,VWS V14.00,2013-07-01 21:53:00,
2013-07-01 16:54:00,81.6,52.8,30.06,North,351,9.0,10.0,37,0.00,,SCT075,0.00,517.00,VWS V14.00,2013-07-01 21:54:00,
2013-07-01 16:55:00,81.6,52.8,30.06,NNW,335,9.0,12.0,37,0.00,,CLR,0.00,517.00,VWS V14.00,2013-07-01 21:55:00,
2013-07-01 16:57:00,81.4,52.7,30.06,NW,316,4.0,12.0,37,0.00,,SCT075,0.00,512.00,VWS V14.00,2013-07-01 21:57:00,
2013-07-01 16:58:00,81.3,51.8,30.06,NW,325,6.0,12.0,36,0.00,,SCT075,0.00,512.00,VWS V14.00,2013-07-01 21:58:00,
2013-07-01 16:59:00,81.3,52.6,30.06,North,11,2.0,3.0,37,0.00,,SCT075,0.00,515.00,VWS V14.00,2013-07-01 21:59:00,
2013-07-01 17:00:00,81.3,52.6,30.06,NNE,14,3.0,12.0,37,0.00,,CLR,0.00,515.00,VWS V14.00,2013-07-01 22:00:00,
2013-07-01 17:02:00,81.2,52.5,30.06,North,355,6.0,9.0,37,0.00,,FEW075,0.00,512.00,VWS V14.00,2013-07-01 22:02:00,
2013-07-01 17:03:00,81.2,53.2,30.06,North,355,2.0,9.0,38,0.00,,FEW075,0.00,512.00,VWS V14.00,2013-07-01 22:03:00,
2013-07-01 17:04:00,81.2,53.2,30.06,North,360,7.0,7.0,38,0.00,,FEW075,0.00,510.00,VWS V14.00,2013-07-01 22:04:00,
2013-07-01 17:05:00,81.2,53.2,30.06,North,351,6.0,10.0,38,0.00,,CLR,0.00,510.00,VWS V14.00,2013-07-01 22:05:00,
2013-07-01 17:07:00,81.2,53.2,30.06,NW,322,5.0,15.0,38,0.00,,FEW075,0.00,506.00,VWS V14.00,2013-07-01 22:07:00,
2013-07-01 17:08:00,81.2,53.2,30.06,NNE,16,4.0,15.0,38,0.00,,FEW075,0.00,499.00,VWS V14.00,2013-07-01 22:08:00,
2013-07-01 17:09:00,81.1,52.4,30.06,ENE,63,4.0,12.0,37,0.00,,FEW075,0.00,485.00,VWS V14.00,2013-07-01 22:09:00,
2013-07-01 17:10:00,81.0,53.0,30.06,NNE,20,6.0,12.0,38,0.00,,FEW075,0.00,489.00,VWS V14.00,2013-07-01 22:10:00,
2013-07-01 17:12:00,81.0,53.7,30.06,NNE,12,6.0,12.0,39,0.00,,FEW075,0.00,485.00,VWS V14.00,2013-07-01 22:12:00,
2013-07-01 17:13:00,81.0,53.7,30.06,NW,321,8.0,12.0,39,0.00,,FEW075,0.00,220.00,VWS V14.00,2013-07-01 22:13:00,
2013-07-01 17:14:00,81.0,53.0,30.06,North,355,8.0,8.0,38,0.00,,FEW075,0.00,185.00,VWS V14.00,2013-07-01 22:14:00,
2013-07-01 17:15:00,81.0,53.0,30.06,NNW,346,3.0,8.0,38,0.00,,FEW075,0.00,185.00,VWS V14.00,2013-07-01 22:15:00,
2013-07-01 17:17:00,81.0,53.7,30.06,North,5,5.0,8.0,39,0.00,,FEW075,0.00,431.00,VWS V14.00,2013-07-01 22:17:00,
2013-07-01 17:18:00,81.0,53.7,30.06,NNW,327,6.0,9.0,39,0.00,,FEW075,0.00,178.00,VWS V14.00,2013-07-01 22:18:00,
2013-07-01 17:19:00,80.9,53.7,30.06,NNW,343,8.0,9.0,39,0.00,,FEW075,0.00,178.00,VWS V14.00,2013-07-01 22:19:00,
2013-07-01 17:20:00,80.9,54.3,30.06,NNW,345,2.0,9.0,40,0.00,,CLR,0.00,178.00,VWS V14.00,2013-07-01 22:20:00,
2013-07-01 17:22:00,80.9,53.7,30.07,WNW,293,4.0,9.0,39,0.00,,CLR,0.00,135.00,VWS V14.00,2013-07-01 22:22:00,
2013-07-01 17:23:00,80.9,52.2,30.06,NE,39,2.0,9.0,37,0.00,,CLR,0.00,130.00,VWS V14.00,2013-07-01 22:23:00,
2013-07-01 17:24:00,80.8,52.1,30.06,ENE,57,5.0,8.0,37,0.00,,CLR,0.00,151.00,VWS V14.00,2013-07-01 22:24:00,
2013-07-01 17:25:00,80.9,52.2,30.06,ESE,109,7.0,10.0,37,0.00,,CLR,0.00,130.00,VWS V14.00,2013-07-01 22:25:00,
2013-07-01 17:26:00,80.7,51.3,30.06,NNE,30,5.0,12.0,36,0.00,,CLR,0.00,250.00,VWS V14.00,2013-07-01 22:26:00,
2013-07-01 17:28:00,80.5,51.9,30.06,East,80,6.0,12.0,37,0.00,,CLR,0.00,250.00,VWS V14.00,2013-07-01 22:28:00,
2013-07-01 17:29:00,80.4,51.8,30.06,NE,44,3.0,6.0,37,0.00,,CLR,0.00,250.00,VWS V14.00,2013-07-01 22:29:00,
2013-07-01 17:30:00,80.4,51.8,30.06,ENE,77,4.0,13.0,37,0.00,,CLR,0.00,250.00,VWS V14.00,2013-07-01 22:30:00,
2013-07-01 17:31:00,80.4,51.8,30.06,NE,34,4.0,8.0,37,0.00,,CLR,0.00,120.00,VWS V14.00,2013-07-01 22:31:00,
2013-07-01 17:33:00,80.3,52.4,30.06,NNW,346,8.0,11.0,38,0.00,,CLR,0.00,121.00,VWS V14.00,2013-07-01 22:33:00,
2013-07-01 17:34:00,80.3,53.1,30.06,ESE,120,5.0,5.0,39,0.00,,CLR,0.00,125.00,VWS V14.00,2013-07-01 22:34:00,
2013-07-01 17:35:00,80.3,52.4,30.06,ENE,65,2.0,10.0,38,0.00,,CLR,0.00,128.00,VWS V14.00,2013-07-01 22:35:00,
2013-07-01 17:36:00,80.3,53.1,30.06,NNW,347,2.0,10.0,39,0.00,,CLR,0.00,132.00,VWS V14.00,2013-07-01 22:36:00,
2013-07-01 17:38:00,80.3,53.8,30.06,NNW,331,1.0,10.0,40,0.00,,CLR,0.00,132.00,VWS V14.00,2013-07-01 22:38:00,
2013-07-01 17:39:00,80.3,54.5,30.06,NE,47,4.0,6.0,41,0.00,,CLR,0.00,130.00,VWS V14.00,2013-07-01 22:39:00,
2013-07-01 17:40:00,80.3,53.8,30.06,North,355,3.0,6.0,40,0.00,,CLR,0.00,128.00,VWS V14.00,2013-07-01 22:40:00,
2013-07-01 17:42:00,80.4,53.9,30.06,North,355,9.0,11.0,40,0.00,,CLR,0.00,130.00,VWS V14.00,2013-07-01 22:42:00,
2013-07-01 17:43:00,80.4,53.9,30.06,North,10,5.0,12.0,40,0.00,,CLR,0.00,128.00,VWS V14.00,2013-07-01 22:43:00,
2013-07-01 17:44:00,80.3,53.1,30.06,NW,324,5.0,9.0,39,0.00,,CLR,0.00,123.00,VWS V14.00,2013-07-01 22:44:00,
2013-07-01 17:45:00,80.4,53.9,30.06,North,5,5.0,9.0,40,0.00,,CLR,0.00,123.00,VWS V14.00,2013-07-01 22:45:00,
2013-07-01 17:47:00,80.3,53.1,30.06,NNW,331,7.0,10.0,39,0.00,,CLR,0.00,113.00,VWS V14.00,2013-07-01 22:47:00,
2013-07-01 17:49:00,80.2,53.0,30.06,ENE,64,8.0,8.0,39,0.00,,CLR,0.00,109.00,VWS V14.00,2013-07-01 22:49:00,
2013-07-01 17:50:00,80.1,52.9,30.06,NNW,332,5.0,11.0,39,0.00,,CLR,0.00,109.00,VWS V14.00,2013-07-01 22:50:00,
2013-07-01 17:52:00,80.0,52.8,30.06,NE,49,3.0,12.0,39,0.00,,CLR,0.00,109.00,VWS V14.00,2013-07-01 22:52:00,
2013-07-01 17:54:00,79.9,52.8,30.06,North,9,3.0,8.0,39,0.00,,CLR,0.00,107.00,VWS V14.00,2013-07-01 22:54:00,
2013-07-01 17:55:00,79.9,53.5,30.06,NNE,28,5.0,8.0,40,0.00,,CLR,0.00,105.00,VWS V14.00,2013-07-01 22:55:00,
2013-07-01 17:57:00,79.8,53.4,30.06,NE,42,1.0,8.0,40,0.00,,CLR,0.00,105.00,VWS V14.00,2013-07-01 22:57:00,
2013-07-01 18:00:00,79.8,53.4,30.06,NNE,30,3.0,12.0,40,0.00,,CLR,0.00,107.00,VWS V14.00,2013-07-01 23:00:00,
2013-07-01 18:01:00,79.8,52.7,30.06,NNE,25,3.0,12.0,39,0.00,,FEW075,0.00,109.00,VWS V14.00,2013-07-01 23:01:00,
2013-07-01 18:03:00,79.8,52.7,30.06,North,11,4.0,13.0,39,0.00,,FEW075,0.00,105.00,VWS V14.00,2013-07-01 23:03:00,
2013-07-01 18:05:00,79.7,52.6,30.06,NNE,12,9.0,10.0,39,0.00,,FEW075,0.00,98.00,VWS V14.00,2013-07-01 23:05:00,
2013-07-01 18:06:00,79.7,51.9,30.06,North,355,7.0,10.0,38,0.00,,FEW075,0.00,95.00,VWS V14.00,2013-07-01 23:06:00,
2013-07-01 18:09:00,79.7,51.9,30.06,NNE,14,2.0,4.0,38,0.00,,FEW075,0.00,88.00,VWS V14.00,2013-07-01 23:09:00,
2013-07-01 18:10:00,79.6,51.8,30.06,NNW,344,4.0,10.0,38,0.00,,CLR,0.00,88.00,VWS V14.00,2013-07-01 23:10:00,
2013-07-01 18:11:00,79.6,52.5,30.06,North,355,5.0,11.0,39,0.00,,FEW075,0.00,84.00,VWS V14.00,2013-07-01 23:11:00,
2013-07-01 18:14:00,79.6,52.5,30.06,North,5,2.0,2.0,39,0.00,,FEW075,0.00,81.00,VWS V14.00,2013-07-01 23:14:00,
2013-07-01 18:15:00,79.6,52.5,30.06,North,5,2.0,11.0,39,0.00,,CLR,0.00,81.00,VWS V14.00,2013-07-01 23:15:00,
2013-07-01 18:16:00,79.6,52.5,30.06,East,89,3.0,9.0,39,0.00,,FEW075,0.00,81.00,VWS V14.00,2013-07-01 23:16:00,
2013-07-01 18:17:00,79.5,52.4,30.06,North,5,3.0,9.0,39,0.00,,FEW075,0.00,81.00,VWS V14.00,2013-07-01 23:17:00,
2013-07-01 18:19:00,79.5,52.4,30.06,ENE,64,2.0,10.0,39,0.00,,FEW075,0.00,81.00,VWS V14.00,2013-07-01 23:19:00,
2013-07-01 18:20:00,79.5,52.4,30.06,North,10,4.0,9.0,39,0.00,,CLR,0.00,81.00,VWS V14.00,2013-07-01 23:20:00,
2013-07-01 18:21:00,79.4,51.6,30.06,ENE,71,0.0,10.0,38,0.00,,FEW075,0.00,81.00,VWS V14.00,2013-07-01 23:21:00,
2013-07-01 18:22:00,79.4,51.6,30.06,North,5,7.0,10.0,38,0.00,,FEW075,0.00,79.00,VWS V14.00,2013-07-01 23:22:00,
2013-07-01 18:24:00,79.3,51.5,30.06,North,355,2.0,8.0,38,0.00,,FEW075,0.00,77.00,VWS V14.00,2013-07-01 23:24:00,
2013-07-01 18:25:00,79.4,51.6,30.06,ENE,61,5.0,10.0,38,0.00,,CLR,0.00,79.00,VWS V14.00,2013-07-01 23:25:00,
2013-07-01 18:26:00,79.3,51.5,30.06,ENE,69,2.0,8.0,38,0.00,,FEW075,0.00,76.00,VWS V14.00,2013-07-01 23:26:00,
2013-07-01 18:27:00,79.3,52.2,30.06,East,95,2.0,8.0,39,0.00,,FEW075,0.00,76.00,VWS V14.00,2013-07-01 23:27:00,
2013-07-01 18:29:00,79.3,51.5,30.06,East,84,5.0,9.0,38,0.00,,FEW075,0.00,72.00,VWS V14.00,2013-07-01 23:29:00,
2013-07-01 18:30:00,79.3,51.5,30.06,NNE,21,3.0,8.0,38,0.00,,CLR,0.00,74.00,VWS V14.00,2013-07-01 23:30:00,
2013-07-01 18:31:00,79.2,52.1,30.06,NNE,26,7.0,9.0,39,0.00,,FEW075,0.00,70.00,VWS V14.00,2013-07-01 23:31:00,
2013-07-01 18:32:00,79.2,52.8,30.06,NE,46,2.0,9.0,40,0.00,,FEW075,0.00,70.00,VWS V14.00,2013-07-01 23:32:00,
2013-07-01 18:35:00,79.1,52.0,30.06,NNW,341,1.0,5.0,39,0.00,,FEW075,0.00,70.00,VWS V14.00,2013-07-01 23:35:00,
2013-07-01 18:36:00,79.1,52.7,30.06,NNW,345,4.0,8.0,40,0.00,,FEW075,0.00,70.00,VWS V14.00,2013-07-01 23:36:00,
2013-07-01 18:37:00,79.1,52.0,30.06,NE,38,4.0,11.0,39,0.00,,FEW075,0.00,70.00,VWS V14.00,2013-07-01 23:37:00,
2013-07-01 18:40:00,79.1,52.0,30.06,NW,308,5.0,9.0,39,0.00,,FEW085,0.00,70.00,VWS V14.00,2013-07-01 23:40:00,
2013-07-01 18:41:00,79.0,52.0,30.06,NE,47,3.0,9.0,39,0.00,,FEW085,0.00,69.00,VWS V14.00,2013-07-01 23:41:00,
2013-07-01 18:42:00,79.0,52.0,30.06,ENE,57,3.0,9.0,39,0.00,,FEW085,0.00,69.00,VWS V14.00,2013-07-01 23:42:00,
2013-07-01 18:45:00,78.9,51.9,30.06,North,5,3.0,7.0,39,0.00,,FEW085,0.00,69.00,VWS V14.00,2013-07-01 23:45:00,
2013-07-01 18:46:00,78.8,51.8,30.06,ENE,74,0.0,7.0,39,0.00,,FEW085,0.00,69.00,VWS V14.00,2013-07-01 23:46:00,
2013-07-01 18:47:00,78.8,51.8,30.06,NE,49,7.0,7.0,39,0.00,,FEW085,0.00,69.00,VWS V14.00,2013-07-01 23:47:00,
2013-07-01 18:50:00,78.8,51.8,30.06,North,5,8.0,9.0,39,0.00,,CLR,0.00,67.00,VWS V14.00,2013-07-01 23:50:00,
2013-07-01 18:51:00,78.9,51.9,30.06,NNE,20,5.0,8.0,39,0.00,,FEW085,0.00,65.00,VWS V14.00,2013-07-01 23:51:00,
2013-07-01 18:52:00,78.8,52.5,30.06,ESE,113,7.0,11.0,40,0.00,,FEW085,0.00,63.00,VWS V14.00,2013-07-01 23:52:00,
2013-07-01 18:53:00,78.8,53.1,30.06,NNE,32,2.0,11.0,41,0.00,,FEW085,0.00,63.00,VWS V14.00,2013-07-01 23:53:00,
2013-07-01 18:55:00,78.8,52.5,30.06,NNE,32,5.0,11.0,40,0.00,,CLR,0.00,63.00,VWS V14.00,2013-07-01 23:55:00,
2013-07-01 18:56:00,78.7,51.7,30.06,East,87,3.0,17.0,39,0.00,,FEW085,0.00,62.00,VWS V14.00,2013-07-01 23:56:00,
2013-07-01 18:57:00,78.7,52.4,30.06,ENE,65,4.0,17.0,40,0.00,,FEW085,0.00,60.00,VWS V14.00,2013-07-01 23:57:00,
2013-07-01 18:58:00,78.7,52.4,30.06,East,97,2.0,17.0,40,0.00,,FEW085,0.00,58.00,VWS V14.00,2013-07-01 23:58:00,
2013-07-01 19:00:00,78.7,52.4,30.06,East,96,1.0,17.0,40,0.00,,CLR,0.00,58.00,VWS V14.00,2013-07-02 00:00:00,
2013-07-01 19:01:00,78.5,52.2,30.06,North,350,0.0,8.0,40,0.00,,CLR,0.00,58.00,VWS V14.00,2013-07-02 00:01:00,
2013-07-01 19:02:00,78.5,52.2,30.06,ENE,61,2.0,8.0,40,0.00,,CLR,0.00,58.00,VWS V14.00,2013-07-02 00:02:00,
2013-07-01 19:03:00,78.5,52.9,30.06,East,89,0.0,8.0,41,0.00,,CLR,0.00,56.00,VWS V14.00,2013-07-02 00:03:00,
2013-07-01 19:04:00,78.5,52.9,30.06,NE,50,1.0,4.0,41,0.00,,CLR,0.00,56.00,VWS V14.00,2013-07-02 00:04:00,
2013-07-01 19:05:00,78.5,52.9,30.06,East,90,0.0,8.0,41,0.00,,CLR,0.00,56.00,VWS V14.00,2013-07-02 00:05:00,
2013-07-01 19:06:00,78.4,53.4,30.06,North,355,0.0,5.0,42,0.00,,CLR,0.00,54.00,VWS V14.00,2013-07-02 00:06:00,
2013-07-01 19:07:00,78.4,52.1,30.06,NNW,348,1.0,6.0,40,0.00,,CLR,0.00,54.00,VWS V14.00,2013-07-02 00:07:00,
2013-07-01 19:08:00,78.4,52.8,30.06,ESE,106,1.0,9.0,41,0.00,,CLR,0.00,54.00,VWS V14.00,2013-07-02 00:08:00,
2013-07-01 19:09:00,78.4,52.1,30.06,NE,39,2.0,13.0,40,0.00,,CLR,0.00,54.00,VWS V14.00,2013-07-02 00:09:00,
2013-07-01 19:10:00,78.4,52.8,30.06,East,95,13.0,13.0,41,0.00,,CLR,0.00,54.00,VWS V14.00,2013-07-02 00:10:00,
2013-07-01 19:11:00,78.3,51.3,30.06,ESE,112,2.0,13.0,39,0.00,,CLR,0.00,54.00,VWS V14.00,2013-07-02 00:11:00,
2013-07-01 19:12:00,78.3,52.0,30.06,ESE,103,1.0,13.0,40,0.00,,CLR,0.00,65.00,VWS V14.00,2013-07-02 00:12:00,
2013-07-01 19:13:00,78.3,52.0,30.06,East,96,1.0,13.0,40,0.00,,CLR,0.00,111.00,VWS V14.00,2013-07-02 00:13:00,
2013-07-01 19:14:00,78.3,52.0,30.06,NE,48,3.0,8.0,40,0.00,,CLR,0.00,83.00,VWS V14.00,2013-07-02 00:14:00,
2013-07-01 19:15:00,78.3,51.3,30.06,NE,38,1.0,8.0,39,0.00,,CLR,0.00,83.00,VWS V14.00,2013-07-02 00:15:00,
2013-07-01 19:16:00,78.2,51.9,30.06,NNE,26,3.0,8.0,40,0.00,,CLR,0.00,90.00,VWS V14.00,2013-07-02 00:16:00,
2013-07-01 19:17:00,78.2,51.9,30.06,NE,53,3.0,8.0,40,0.00,,CLR,0.00,72.00,VWS V14.00,2013-07-02 00:17:00,
2013-07-01 19:18:00,78.2,51.9,30.06,ESE,107,4.0,8.0,40,0.00,,CLR,0.00,81.00,VWS V14.00,2013-07-02 00:18:00,
2013-07-01 19:19:00,78.2,51.9,30.06,NE,55,0.0,5.0,40,0.00,,CLR,0.00,83.00,VWS V14.00,2013-07-02 00:19:00,
2013-07-01 19:20:00,78.2,51.9,30.06,East,81,5.0,5.0,40,0.00,,CLR,0.00,83.00,VWS V14.00,2013-07-02 00:20:00,
2013-07-01 19:21:00,78.1,51.8,30.06,NNE,28,6.0,8.0,40,0.00,,CLR,0.00,100.00,VWS V14.00,2013-07-02 00:21:00,
2013-07-01 19:23:00,78.0,52.4,30.06,NE,38,0.0,8.0,41,0.00,,CLR,0.00,67.00,VWS V14.00,2013-07-02 00:23:00,
2013-07-01 19:25:00,77.9,51.7,30.06,ESE,109,4.0,5.0,40,0.00,,CLR,0.00,47.00,VWS V14.00,2013-07-02 00:25:00,
2013-07-01 19:26:00,77.9,52.3,30.06,ENE,59,0.0,5.0,41,0.00,,CLR,0.00,46.00,VWS V14.00,2013-07-02 00:26:00,
2013-07-01 19:28:00,77.8,52.2,30.06,East,95,1.0,5.0,41,0.00,,CLR,0.00,46.00,VWS V14.00,2013-07-02 00:28:00,
2013-07-01 19:30:00,77.7,52.8,30.06,NNW,342,5.0,5.0,42,0.00,,CLR,0.00,47.00,VWS V14.00,2013-07-02 00:30:00,
2013-07-01 19:31:00,77.6,52.1,30.06,ENE,65,3.0,6.0,41,0.00,,CLR,0.00,46.00,VWS V14.00,2013-07-02 00:31:00,
2013-07-01 19:33:00,77.6,51.4,30.06,ENE,67,3.0,7.0,40,0.00,,CLR,0.00,46.00,VWS V14.00,2013-07-02 00:33:00,
2013-07-01 19:35:00,77.5,51.3,30.06,NNE,31,6.0,7.0,40,0.00,,CLR,0.00,47.00,VWS V14.00,2013-07-02 00:35:00,
2013-07-01 19:36:00,77.5,51.3,30.06,NNE,28,1.0,6.0,40,0.00,,CLR,0.00,46.00,VWS V14.00,2013-07-02 00:36:00,
2013-07-01 19:38:00,77.4,51.2,30.06,East,79,1.0,6.0,40,0.00,,CLR,0.00,42.00,VWS V14.00,2013-07-02 00:38:00,
2013-07-01 19:39:00,77.4,51.2,30.06,NE,34,1.0,4.0,40,0.00,,CLR,0.00,42.00,VWS V14.00,2013-07-02 00:39:00,
2013-07-01 19:40:00,77.4,51.2,30.06,NNE,26,4.0,6.0,40,0.00,,CLR,0.00,42.00,VWS V14.00,2013-07-02 00:40:00,
2013-07-01 19:41:00,77.3,51.1,30.06,ENE,74,2.0,5.0,40,0.00,,CLR,0.00,44.00,VWS V14.00,2013-07-02 00:41:00,
2013-07-01 19:43:00,77.2,51.7,30.06,ENE,58,0.0,7.0,41,0.00,,CLR,0.00,35.00,VWS V14.00,2013-07-02 00:43:00,
2013-07-01 19:44:00,77.2,51.7,30.06,ESE,106,7.0,7.0,41,0.00,,CLR,0.00,35.00,VWS V14.00,2013-07-02 00:44:00,
2013-07-01 19:45:00,77.2,51.7,30.06,ENE,58,0.0,7.0,41,0.00,,CLR,0.00,35.00,VWS V14.00,2013-07-02 00:45:00,
2013-07-01 19:46:00,77.1,50.9,30.06,ESE,123,4.0,7.0,40,0.00,,CLR,0.00,33.00,VWS V14.00,2013-07-02 00:46:00,
2013-07-01 19:48:00,77.0,50.9,30.07,East,96,0.0,7.0,40,0.00,,CLR,0.00,33.00,VWS V14.00,2013-07-02 00:48:00,
2013-07-01 19:49:00,77.0,51.5,30.06,NE,36,2.0,2.0,41,0.00,,CLR,0.00,30.00,VWS V14.00,2013-07-02 00:49:00,
2013-07-01 19:50:00,77.0,50.8,30.07,NE,39,1.0,7.0,40,0.00,,CLR,0.00,32.00,VWS V14.00,2013-07-02 00:50:00,
2013-07-01 19:51:00,76.9,50.8,30.07,NE,36,0.0,5.0,40,0.00,,CLR,0.00,32.00,VWS V14.00,2013-07-02 00:51:00,
2013-07-01 19:53:00,76.8,51.3,30.07,NE,43,2.0,7.0,41,0.00,,CLR,0.00,30.00,VWS V14.00,2013-07-02 00:53:00,
2013-07-01 19:54:00,76.8,51.3,30.06,NNE,13,0.0,3.0,41,0.00,,CLR,0.00,30.00,VWS V14.00,2013-07-02 00:54:00,
2013-07-01 19:55:00,76.8,51.3,30.07,NE,43,1.0,7.0,41,0.00,,CLR,0.00,30.00,VWS V14.00,2013-07-02 00:55:00,
2013-07-01 19:56:00,76.6,51.8,30.07,East,94,5.0,5.0,42,0.00,,CLR,0.00,28.00,VWS V14.00,2013-07-02 00:56:00,
2013-07-01 19:57:00,76.6,51.8,30.07,East,79,3.0,5.0,42,0.00,,CLR,0.00,28.00,VWS V14.00,2013-07-02 00:57:00,
2013-07-01 19:59:00,76.5,52.4,30.07,NNW,348,3.0,4.0,43,0.00,,CLR,0.00,28.00,VWS V14.00,2013-07-02 00:59:00,
2013-07-01 20:00:00,76.5,52.4,30.07,NNE,12,0.0,5.0,43,0.00,,CLR,0.00,26.00,VWS V14.00,2013-07-02 01:00:00,
2013-07-01 20:01:00,76.3,52.2,30.07,ESE,114,2.0,5.0,43,0.00,,CLR,0.00,26.00,VWS V14.00,2013-07-02 01:01:00,
2013-07-01 20:02:00,76.3,52.2,30.07,East,100,4.0,5.0,43,0.00,,CLR,0.00,26.00,VWS V14.00,2013-07-02 01:02:00,
2013-07-01 20:04:00,76.2,52.1,30.07,East,98,0.0,0.0,43,0.00,,CLR,0.00,25.00,VWS V14.00,2013-07-02 01:04:00,
2013-07-01 20:05:00,76.1,52.0,30.07,ENE,69,2.0,2.0,43,0.00,,CLR,0.00,25.00,VWS V14.00,2013-07-02 01:05:00,
2013-07-01 20:07:00,76.0,51.9,30.07,NNW,348,2.0,6.0,43,0.00,,CLR,0.00,23.00,VWS V14.00,2013-07-02 01:07:00,
2013-07-01 20:10:00,75.9,51.8,30.07,ENE,68,1.0,4.0,43,0.00,,CLR,0.00,21.00,VWS V14.00,2013-07-02 01:10:00,
2013-07-01 20:12:00,75.8,52.4,30.07,NE,53,0.0,4.0,44,0.00,,CLR,0.00,21.00,VWS V14.00,2013-07-02 01:12:00,
2013-07-01 20:15:00,75.7,52.3,30.07,NE,44,0.0,1.0,44,0.00,,CLR,0.00,19.00,VWS V14.00,2013-07-02 01:15:00,
2013-07-01 20:17:00,75.6,52.8,30.07,NE,45,0.0,1.0,45,0.00,,CLR,0.00,18.00,VWS V14.00,2013-07-02 01:17:00,
2013-07-01 20:20:00,75.4,52.6,30.07,NE,44,0.0,0.0,45,0.00,,CLR,0.00,16.00,VWS V14.00,2013-07-02 01:20:00,
2013-07-01 20:22:00,75.3,52.5,30.07,NE,44,0.0,0.0,45,0.00,,CLR,0.00,14.00,VWS V14.00,2013-07-02 01:22:00,
2013-07-01 20:23:00,75.2,53.0,30.07,NE,44,1.0,1.0,46,0.00,,CLR,0.00,14.00,VWS V14.00,2013-07-02 01:23:00,
2013-07-01 20:25:00,75.1,52.9,30.07,NE,44,0.0,0.0,46,0.00,,CLR,0.00,12.00,VWS V14.00,2013-07-02 01:25:00,
2013-07-01 20:27:00,74.9,53.3,30.07,NE,44,1.0,1.0,47,0.00,,CLR,0.00,12.00,VWS V14.00,2013-07-02 01:27:00,
2013-07-01 20:28:00,74.9,53.3,30.07,NE,44,0.0,1.0,47,0.00,,CLR,0.00,12.00,VWS V14.00,2013-07-02 01:28:00,
2013-07-01 20:30:00,74.7,52.6,30.07,NE,44,0.0,2.0,46,0.00,,CLR,0.00,11.00,VWS V14.00,2013-07-02 01:30:00,
2013-07-01 20:33:00,74.4,52.3,30.07,NE,44,0.0,2.0,46,0.00,,CLR,0.00,9.00,VWS V14.00,2013-07-02 01:33:00,
2013-07-01 20:35:00,74.3,53.4,30.07,NE,44,0.0,1.0,48,0.00,,CLR,0.00,7.00,VWS V14.00,2013-07-02 01:35:00,
2013-07-01 20:38:00,74.1,53.2,30.07,NE,44,0.0,1.0,48,0.00,,CLR,0.00,7.00,VWS V14.00,2013-07-02 01:38:00,
2013-07-01 20:40:00,73.9,53.0,30.07,NE,44,0.0,0.0,48,0.00,,CLR,0.00,5.00,VWS V14.00,2013-07-02 01:40:00,
2013-07-01 20:41:00,73.8,52.9,30.07,NE,44,0.0,0.0,48,0.00,,CLR,0.00,5.00,VWS V14.00,2013-07-02 01:41:00,
2013-07-01 20:43:00,73.7,52.8,30.07,NE,44,0.0,1.0,48,0.00,,CLR,0.00,5.00,VWS V14.00,2013-07-02 01:43:00,
2013-07-01 20:44:00,73.6,53.3,30.07,NE,44,0.0,0.0,49,0.00,,CLR,0.00,5.00,VWS V14.00,2013-07-02 01:44:00,
2013-07-01 20:45:00,73.6,53.3,30.07,NE,44,0.0,1.0,49,0.00,,CLR,0.00,5.00,VWS V14.00,2013-07-02 01:45:00,
2013-07-01 20:46:00,73.5,53.2,30.07,NE,44,0.0,1.0,49,0.00,,CLR,0.00,0.00,VWS V14.00,2013-07-02 01:46:00,
2013-07-01 20:48:00,73.2,52.9,30.07,NE,44,0.0,1.0,49,0.00,,CLR,0.00,0.00,VWS V14.00,2013-07-02 01:48:00,
2013-07-01 20:49:00,73.2,53.5,30.07,NE,44,0.0,0.0,50,0.00,,CLR,0.00,0.00,VWS V14.00,2013-07-02 01:49:00,
2013-07-01 20:50:00,73.2,52.9,30.07,NE,44,0.0,1.0,49,0.00,,CLR,0.00,0.00,VWS V14.00,2013-07-02 01:50:00,
2013-07-01 20:51:00,73.1,53.9,30.07,NE,44,0.0,0.0,51,0.00,,CLR,0.00,0.00,VWS V14.00,2013-07-02 01:51:00,
2013-07-01 20:53:00,72.9,54.3,30.07,NE,44,0.0,0.0,52,0.00,,CLR,0.00,0.00,VWS V14.00,2013-07-02 01:53:00,
2013-07-01 20:54:00,72.9,54.3,30.07,NE,44,0.0,0.0,52,0.00,,CLR,0.00,0.00,VWS V14.00,2013-07-02 01:54:00,
2013-07-01 20:55:00,72.9,54.3,30.07,NE,44,0.0,0.0,52,0.00,,CLR,0.00,0.00,VWS V14.00,2013-07-02 01:55:00,
2013-07-01 20:56:00,72.7,54.6,30.07,NE,44,0.0,0.0,53,0.00,,CLR,0.00,0.00,VWS V14.00,2013-07-02 01:56:00,
2013-07-01 20:58:00,72.4,54.8,30.07,NE,44,0.0,0.0,54,0.00,,CLR,0.00,0.00,VWS V14.00,2013-07-02 01:58:00,
2013-07-01 20:59:00,72.4,54.3,30.07,NE,44,0.0,0.0,53,0.00,,CLR,0.00,0.00,VWS V14.00,2013-07-02 01:59:00,
2013-07-01 21:00:00,72.4,54.8,30.07,NE,44,0.0,0.0,54,0.00,,CLR,0.00,0.00,VWS V14.00,2013-07-02 02:00:00,
2013-07-01 21:01:00,72.1,54.0,30.07,NE,44,0.0,0.0,53,0.00,,CLR,0.00,0.00,VWS V14.00,2013-07-02 02:01:00,
2013-07-01 21:03:00,71.7,53.7,30.07,NE,44,0.0,0.0,53,0.00,,CLR,0.00,0.00,VWS V14.00,2013-07-02 02:03:00,
2013-07-01 21:04:00,71.6,53.6,30.07,NE,44,0.0,0.0,53,0.00,,CLR,0.00,0.00,VWS V14.00,2013-07-02 02:04:00,
2013-07-01 21:05:00,71.7,53.7,30.07,NE,44,0.0,0.0,53,0.00,,CLR,0.00,0.00,VWS V14.00,2013-07-02 02:05:00,
2013-07-01 21:06:00,71.3,53.8,30.07,NE,44,0.0,0.0,54,0.00,,CLR,0.00,0.00,VWS V14.00,2013-07-02 02:06:00,
2013-07-01 21:07:00,71.2,53.7,30.07,NE,44,0.0,0.0,54,0.00,,CLR,0.00,0.00,VWS V14.00,2013-07-02 02:07:00,
2013-07-01 21:09:00,71.0,54.0,30.07,NE,44,0.0,0.0,55,0.00,,CLR,0.00,0.00,VWS V14.00,2013-07-02 02:09:00,
2013-07-01 21:10:00,70.9,54.0,30.07,NE,44,0.0,0.0,55,0.00,,CLR,0.00,0.00,VWS V14.00,2013-07-02 02:10:00,
2013-07-01 21:11:00,70.7,53.8,30.07,NE,44,0.0,0.0,55,0.00,,CLR,0.00,0.00,VWS V14.00,2013-07-02 02:11:00,
2013-07-01 21:12:00,70.6,53.7,30.07,NE,44,0.0,0.0,55,0.00,,CLR,0.00,0.00,VWS V14.00,2013-07-02 02:12:00,
2013-07-01 21:14:00,70.4,53.5,30.07,NE,44,0.0,0.0,55,0.00,,CLR,0.00,0.00,VWS V14.00,2013-07-02 02:14:00,
2013-07-01 21:15:00,70.3,53.4,30.07,NE,44,0.0,0.0,55,0.00,,CLR,0.00,0.00,VWS V14.00,2013-07-02 02:15:00,
2013-07-01 21:16:00,70.2,53.8,30.07,NE,44,0.0,0.0,56,0.00,,CLR,0.00,0.00,VWS V14.00,2013-07-02 02:16:00,
2013-07-01 21:17:00,70.0,53.6,30.07,NE,44,0.0,0.0,56,0.00,,CLR,0.00,0.00,VWS V14.00,2013-07-02 02:17:00,
2013-07-01 21:19:00,69.9,53.5,30.07,NE,44,0.0,0.0,56,0.00,,CLR,0.00,0.00,VWS V14.00,2013-07-02 02:19:00,
2013-07-01 21:20:00,69.8,53.9,30.07,NE,44,0.0,0.0,57,0.00,,CLR,0.00,0.00,VWS V14.00,2013-07-02 02:20:00,
2013-07-01 21:21:00,69.7,53.3,30.07,NE,44,0.0,0.0,56,0.00,,CLR,0.00,0.00,VWS V14.00,2013-07-02 02:21:00,
2013-07-01 21:24:00,69.5,53.1,30.07,NE,44,0.0,0.0,56,0.00,,CLR,0.00,0.00,VWS V14.00,2013-07-02 02:24:00,
2013-07-01 21:25:00,69.4,53.5,30.07,NE,44,0.0,0.0,57,0.00,,CLR,0.00,0.00,VWS V14.00,2013-07-02 02:25:00,
2013-07-01 21:26:00,69.3,53.4,30.07,NE,44,0.0,0.0,57,0.00,,CLR,0.00,0.00,VWS V14.00,2013-07-02 02:26:00,
2013-07-01 21:29:00,69.2,53.8,30.07,NE,44,0.0,0.0,58,0.00,,CLR,0.00,0.00,VWS V14.00,2013-07-02 02:29:00,
2013-07-01 21:30:00,69.1,54.2,30.07,NE,44,0.0,0.0,59,0.00,,CLR,0.00,0.00,VWS V14.00,2013-07-02 02:30:00,
2013-07-01 21:32:00,69.0,54.1,30.07,NE,44,0.0,0.0,59,0.00,,CLR,0.00,0.00,VWS V14.00,2013-07-02 02:32:00,
2013-07-01 21:34:00,68.8,53.9,30.07,NE,44,0.0,0.0,59,0.00,,CLR,0.00,0.00,VWS V14.00,2013-07-02 02:34:00,
2013-07-01 21:35:00,68.7,54.3,30.07,NE,44,0.0,0.0,60,0.00,,CLR,0.00,0.00,VWS V14.00,2013-07-02 02:35:00,
2013-07-01 21:37:00,68.6,53.7,30.07,NE,44,0.0,0.0,59,0.00,,CLR,0.00,0.00,VWS V14.00,2013-07-02 02:37:00,
2013-07-01 21:39:00,68.5,54.1,30.07,NE,44,0.0,0.0,60,0.00,,CLR,0.00,0.00,VWS V14.00,2013-07-02 02:39:00,
2013-07-01 21:40:00,68.4,54.0,30.07,NE,44,0.0,0.0,60,0.00,,CLR,0.00,0.00,VWS V14.00,2013-07-02 02:40:00,
2013-07-01 21:41:00,68.4,54.0,30.07,NE,44,0.0,0.0,60,0.00,,CLR,0.00,0.00,VWS V14.00,2013-07-02 02:41:00,
2013-07-01 21:42:00,68.3,54.3,30.08,NE,44,0.0,0.0,61,0.00,,CLR,0.00,0.00,VWS V14.00,2013-07-02 02:42:00,
2013-07-01 21:44:00,68.1,54.2,30.07,NE,44,0.0,0.0,61,0.00,,CLR,0.00,0.00,VWS V14.00,2013-07-02 02:44:00,
2013-07-01 21:45:00,68.1,54.6,30.07,NE,44,0.0,1.0,62,0.00,,CLR,0.00,0.00,VWS V14.00,2013-07-02 02:45:00,
2013-07-01 21:46:00,68.0,54.5,30.07,NE,44,0.0,1.0,62,0.00,,CLR,0.00,0.00,VWS V14.00,2013-07-02 02:46:00,
2013-07-01 21:47:00,68.0,54.5,30.07,NE,44,0.0,1.0,62,0.00,,CLR,0.00,0.00,VWS V14.00,2013-07-02 02:47:00,
2013-07-01 21:50:00,67.7,54.2,30.08,NE,44,0.0,0.0,62,0.00,,CLR,0.00,0.00,VWS V14.00,2013-07-02 02:50:00,
2013-07-01 21:51:00,67.6,54.1,30.08,NE,44,0.0,0.0,62,0.00,,CLR,0.00,0.00,VWS V14.00,2013-07-02 02:51:00,
2013-07-01 21:52:00,67.6,54.6,30.08,NE,44,0.0,0.0,63,0.00,,CLR,0.00,0.00,VWS V14.00,2013-07-02 02:52:00,
2013-07-01 21:55:00,67.4,54.8,30.08,NE,44,0.0,0.0,64,0.00,,CLR,0.00,0.00,VWS V14.00,2013-07-02 02:55:00,
2013-07-01 21:56:00,67.4,54.8,30.08,NE,44,0.0,0.0,64,0.00,,CLR,0.00,0.00,VWS V14.00,2013-07-02 02:56:00,
2013-07-01 21:57:00,67.3,54.7,30.08,NE,44,0.0,0.0,64,0.00,,CLR,0.00,0.00,VWS V14.00,2013-07-02 02:57:00,
2013-07-01 22:00:00,67.1,54.5,30.08,NE,44,0.0,0.0,64,0.00,,CLR,0.00,0.00,VWS V14.00,2013-07-02 03:00:00,
2013-07-01 22:01:00,67.0,54.0,30.08,NE,44,0.0,0.0,63,0.00,,CLR,0.00,0.00,VWS V14.00,2013-07-02 03:01:00,
2013-07-01 22:02:00,66.9,54.3,30.08,NE,44,0.0,0.0,64,0.00,,CLR,0.00,0.00,VWS V14.00,2013-07-02 03:02:00,
2013-07-01 22:05:00,66.7,54.2,30.08,NE,44,0.0,0.0,64,0.00,,CLR,0.00,0.00,VWS V14.00,2013-07-02 03:05:00,
2013-07-01 22:07:00,66.6,54.5,30.08,NE,44,0.0,0.0,65,0.00,,CLR,0.00,0.00,VWS V14.00,2013-07-02 03:07:00,
2013-07-01 22:08:00,66.6,54.5,30.08,NE,44,0.0,0.0,65,0.00,,CLR,0.00,0.00,VWS V14.00,2013-07-02 03:08:00,
2013-07-01 22:10:00,66.4,54.3,30.08,NE,44,0.0,0.0,65,0.00,,CLR,0.00,0.00,VWS V14.00,2013-07-02 03:10:00,
2013-07-01 22:12:00,66.3,54.2,30.08,NE,44,0.0,0.0,65,0.00,,CLR,0.00,0.00,VWS V14.00,2013-07-02 03:12:00,
2013-07-01 22:13:00,66.3,54.2,30.08,NE,44,0.0,0.0,65,0.00,,CLR,0.00,0.00,VWS V14.00,2013-07-02 03:13:00,
2013-07-01 22:15:00,66.2,54.5,30.08,NE,44,0.0,0.0,66,0.00,,CLR,0.00,0.00,VWS V14.00,2013-07-02 03:15:00,
2013-07-01 22:17:00,66.1,54.0,30.08,NE,44,0.0,0.0,65,0.00,,CLR,0.00,0.00,VWS V14.00,2013-07-02 03:17:00,
2013-07-01 22:18:00,66.1,54.0,30.08,NE,44,0.0,0.0,65,0.00,,CLR,0.00,0.00,VWS V14.00,2013-07-02 03:18:00,
2013-07-01 22:20:00,66.1,54.4,30.08,NE,44,0.0,0.0,66,0.00,,CLR,0.00,0.00,VWS V14.00,2013-07-02 03:20:00,
2013-07-01 22:21:00,66.0,54.7,30.08,NE,44,0.0,0.0,67,0.00,,CLR,0.00,0.00,VWS V14.00,2013-07-02 03:21:00,
2013-07-01 22:22:00,66.0,54.7,30.08,NE,44,0.0,0.0,67,0.00,,CLR,0.00,0.00,VWS V14.00,2013-07-02 03:22:00,
2013-07-01 22:23:00,65.9,54.7,30.08,NE,44,0.0,0.0,67,0.00,,CLR,0.00,0.00,VWS V14.00,2013-07-02 03:23:00,
2013-07-01 22:25:00,65.9,54.7,30.08,NE,44,0.0,0.0,67,0.00,,CLR,0.00,0.00,VWS V14.00,2013-07-02 03:25:00,
2013-07-01 22:26:00,65.8,54.5,30.08,NE,44,0.0,0.0,67,0.00,,CLR,0.00,0.00,VWS V14.00,2013-07-02 03:26:00,
2013-07-01 22:28:00,65.8,54.5,30.08,NE,44,0.0,0.0,67,0.00,,CLR,0.00,0.00,VWS V14.00,2013-07-02 03:28:00,
2013-07-01 22:30:00,65.7,54.5,30.08,NE,44,0.0,0.0,67,0.00,,CLR,0.00,0.00,VWS V14.00,2013-07-02 03:30:00,
2013-07-01 22:31:00,65.6,54.0,30.08,NE,44,0.0,0.0,66,0.00,,CLR,0.00,0.00,VWS V14.00,2013-07-02 03:31:00,
2013-07-01 22:33:00,65.6,54.0,30.08,NE,44,0.0,0.0,66,0.00,,CLR,0.00,0.00,VWS V14.00,2013-07-02 03:33:00,
2013-07-01 22:34:00,65.5,53.8,30.08,NE,44,0.0,0.0,66,0.00,,CLR,0.00,0.00,VWS V14.00,2013-07-02 03:34:00,
2013-07-01 22:35:00,65.5,53.8,30.08,NE,44,0.0,0.0,66,0.00,,CLR,0.00,0.00,VWS V14.00,2013-07-02 03:35:00,
2013-07-01 22:36:00,65.4,54.2,30.08,NE,44,0.0,0.0,67,0.00,,CLR,0.00,0.00,VWS V14.00,2013-07-02 03:36:00,
2013-07-01 22:38:00,65.4,54.6,30.08,NE,44,0.0,0.0,68,0.00,,CLR,0.00,0.00,VWS V14.00,2013-07-02 03:38:00,
2013-07-01 22:39:00,65.4,54.6,30.08,NE,44,0.0,0.0,68,0.00,,CLR,0.00,0.00,VWS V14.00,2013-07-02 03:39:00,
2013-07-01 22:40:00,65.4,54.6,30.08,NE,44,0.0,0.0,68,0.00,,CLR,0.00,0.00,VWS V14.00,2013-07-02 03:40:00,
2013-07-01 22:42:00,65.3,54.9,30.08,NE,44,0.0,0.0,69,0.00,,CLR,0.00,0.00,VWS V14.00,2013-07-02 03:42:00,
2013-07-01 22:43:00,65.3,54.9,30.08,NE,44,0.0,0.0,69,0.00,,CLR,0.00,0.00,VWS V14.00,2013-07-02 03:43:00,
2013-07-01 22:44:00,65.2,54.8,30.08,NE,44,0.0,0.0,69,0.00,,CLR,0.00,0.00,VWS V14.00,2013-07-02 03:44:00,
2013-07-01 22:45:00,65.2,54.8,30.08,NE,44,0.0,0.0,69,0.00,,CLR,0.00,0.00,VWS V14.00,2013-07-02 03:45:00,
2013-07-01 22:47:00,65.2,54.8,30.08,NE,44,0.0,0.0,69,0.00,,CLR,0.00,0.00,VWS V14.00,2013-07-02 03:47:00,
2013-07-01 22:48:00,65.1,54.7,30.08,NE,44,0.0,0.0,69,0.00,,CLR,0.00,0.00,VWS V14.00,2013-07-02 03:48:00,
2013-07-01 22:49:00,65.1,54.7,30.08,NE,44,0.0,0.0,69,0.00,,CLR,0.00,0.00,VWS V14.00,2013-07-02 03:49:00,
2013-07-01 22:50:00,65.1,55.1,30.08,NE,44,0.0,0.0,70,0.00,,CLR,0.00,0.00,VWS V14.00,2013-07-02 03:50:00,
2013-07-01 22:52:00,65.0,55.0,30.08,NE,44,0.0,0.0,70,0.00,,CLR,0.00,0.00,VWS V14.00,2013-07-02 03:52:00,
2013-07-01 22:53:00,64.9,54.9,30.08,NE,44,0.0,0.0,70,0.00,,CLR,0.00,0.00,VWS V14.00,2013-07-02 03:53:00,
2013-07-01 22:54:00,64.9,54.9,30.08,NE,44,0.0,0.0,70,0.00,,CLR,0.00,0.00,VWS V14.00,2013-07-02 03:54:00,
2013-07-01 22:55:00,64.8,55.2,30.08,NE,44,0.0,0.0,71,0.00,,CLR,0.00,0.00,VWS V14.00,2013-07-02 03:55:00,
2013-07-01 22:57:00,64.8,54.8,30.08,NE,44,0.0,0.0,70,0.00,,CLR,0.00,0.00,VWS V14.00,2013-07-02 03:57:00,
2013-07-01 22:58:00,64.7,54.7,30.08,NE,44,0.0,0.0,70,0.00,,CLR,0.00,0.00,VWS V14.00,2013-07-02 03:58:00,
2013-07-01 22:59:00,64.7,54.7,30.08,NE,44,0.0,0.0,70,0.00,,CLR,0.00,0.00,VWS V14.00,2013-07-02 03:59:00,
2013-07-01 23:00:00,64.6,55.0,30.08,NE,44,0.0,0.0,71,0.00,,CLR,0.00,0.00,VWS V14.00,2013-07-02 04:00:00,
2013-07-01 23:01:00,64.6,55.0,30.08,NE,44,0.0,0.0,71,0.00,,CLR,0.00,0.00,VWS V14.00,2013-07-02 04:01:00,
2013-07-01 23:05:00,64.4,54.4,30.08,NE,44,0.0,0.0,70,0.00,,CLR,0.00,0.00,VWS V14.00,2013-07-02 04:05:00,
2013-07-01 23:06:00,64.3,54.7,30.08,NE,44,0.0,0.0,71,0.00,,CLR,0.00,0.00,VWS V14.00,2013-07-02 04:06:00,
2013-07-01 23:10:00,64.1,54.9,30.08,NE,44,0.0,0.0,72,0.00,,CLR,0.00,0.00,VWS V14.00,2013-07-02 04:10:00,
2013-07-01 23:11:00,64.0,54.8,30.08,NE,44,0.0,0.0,72,0.00,,CLR,0.00,0.00,VWS V14.00,2013-07-02 04:11:00,
2013-07-01 23:12:00,64.0,54.8,30.08,NE,44,0.0,0.0,72,0.00,,CLR,0.00,0.00,VWS V14.00,2013-07-02 04:12:00,
2013-07-01 23:15:00,63.9,54.7,30.08,NE,44,0.0,0.0,72,0.00,,CLR,0.00,0.00,VWS V14.00,2013-07-02 04:15:00,
2013-07-01 23:16:00,63.8,54.6,30.08,NE,44,0.0,0.0,72,0.00,,CLR,0.00,0.00,VWS V14.00,2013-07-02 04:16:00,
2013-07-01 23:17:00,63.8,54.6,30.08,NE,44,0.0,0.0,72,0.00,,CLR,0.00,0.00,VWS V14.00,2013-07-02 04:17:00,
2013-07-01 23:20:00,63.7,54.9,30.08,NE,44,0.0,0.0,73,0.00,,CLR,0.00,0.00,VWS V14.00,2013-07-02 04:20:00,
2013-07-01 23:21:00,63.6,54.8,30.08,NE,44,0.0,0.0,73,0.00,,CLR,0.00,0.00,VWS V14.00,2013-07-02 04:21:00,
2013-07-01 23:22:00,63.5,54.7,30.08,NE,44,0.0,0.0,73,0.00,,CLR,0.00,0.00,VWS V14.00,2013-07-02 04:22:00,
2013-07-01 23:25:00,63.5,54.7,30.08,NE,44,0.0,0.0,73,0.00,,CLR,0.00,0.00,VWS V14.00,2013-07-02 04:25:00,
2013-07-01 23:26:00,63.3,54.5,30.08,NE,44,0.0,0.0,73,0.00,,CLR,0.00,0.00,VWS V14.00,2013-07-02 04:26:00,
2013-07-01 23:27:00,63.3,54.5,30.08,NE,44,0.0,0.0,73,0.00,,CLR,0.00,0.00,VWS V14.00,2013-07-02 04:27:00,
2013-07-01 23:30:00,63.2,54.8,30.08,NE,44,0.0,0.0,74,0.00,,CLR,0.00,0.00,VWS V14.00,2013-07-02 04:30:00,
2013-07-01 23:32:00,63.1,54.7,30.08,NE,44,0.0,0.0,74,0.00,,CLR,0.00,0.00,VWS V14.00,2013-07-02 04:32:00,
2013-07-01 23:33:00,63.0,54.6,30.08,NE,44,0.0,0.0,74,0.00,,CLR,0.00,0.00,VWS V14.00,2013-07-02 04:33:00,
2013-07-01 23:35:00,63.0,54.2,30.08,NE,44,0.0,0.0,73,0.00,,CLR,0.00,0.00,VWS V14.00,2013-07-02 04:35:00,
2013-07-01 23:37:00,62.8,54.4,30.08,NE,44,0.0,0.0,74,0.00,,CLR,0.00,0.00,VWS V14.00,2013-07-02 04:37:00,
2013-07-01 23:38:00,62.8,54.8,30.08,NE,44,0.0,0.0,75,0.00,,CLR,0.00,0.00,VWS V14.00,2013-07-02 04:38:00,
2013-07-01 23:40:00,62.7,54.7,30.08,NE,44,0.0,0.0,75,0.00,,CLR,0.00,0.00,VWS V14.00,2013-07-02 04:40:00,
2013-07-01 23:42:00,62.6,54.9,30.08,NE,44,0.0,0.0,76,0.00,,CLR,0.00,0.00,VWS V14.00,2013-07-02 04:42:00,
2013-07-01 23:43:00,62.6,54.6,30.08,NE,44,0.0,0.0,75,0.00,,CLR,0.00,0.00,VWS V14.00,2013-07-02 04:43:00,
2013-07-01 23:45:00,62.5,54.5,30.08,NE,44,0.0,0.0,75,0.00,,CLR,0.00,0.00,VWS V14.00,2013-07-02 04:45:00,
2013-07-01 23:47:00,62.4,54.8,30.08,NE,44,0.0,0.0,76,0.00,,CLR,0.00,0.00,VWS V14.00,2013-07-02 04:47:00,
2013-07-01 23:48:00,62.4,54.8,30.08,NE,44,0.0,0.0,76,0.00,,CLR,0.00,0.00,VWS V14.00,2013-07-02 04:48:00,
2013-07-01 23:50:00,62.3,54.7,30.08,NE,44,0.0,0.0,76,0.00,,CLR,0.00,0.00,VWS V14.00,2013-07-02 04:50:00,
2013-07-01 23:52:00,62.2,54.5,30.08,NE,44,0.0,0.0,76,0.00,,CLR,0.00,0.00,VWS V14.00,2013-07-02 04:52:00,
2013-07-01 23:53:00,62.1,54.5,30.08,NE,44,0.0,0.0,76,0.00,,CLR,0.00,0.00,VWS V14.00,2013-07-02 04:53:00,
2013-07-01 23:55:00,62.1,54.5,30.08,NE,44,0.0,0.0,76,0.00,,CLR,0.00,0.00,VWS V14.00,2013-07-02 04:55:00,
2013-07-01 23:57:00,62.0,54.7,30.08,NE,44,0.0,0.0,77,0.00,,CLR,0.00,0.00,VWS V14.00,2013-07-02 04:57:00,
2013-07-01 23:58:00,61.9,54.6,30.08,NE,44,0.0,0.0,77,0.00,,CLR,0.00,0.00,VWS V14.00,2013-07-02 04:58:00,